Latitude: N 50° 09' 49" Longitude: W 05° 11' 53" Elevation: 168m ASL

There are 7 visitors online

Adverts

<- Previous Day | Today | Next Day ->

All Data for 11 August 2018

Time
A - D
Temp
A - D
Dew Point
A - D
Humidity
A - D
Pressure
A - D
Wind
A - D
Wind Dir Gust
A - D
Rain Rate
A - D
Rain Total
00:00 15.1 13.1 88 1023.5 0.0 N 0.0 0.0 0.0
00:01 15.1 13.1 88 1023.3 0.0 N 0.0 0.0 0.0
00:02 15.1 13.1 88 1023.5 0.0 N 0.0 0.0 0.0
00:03 15.1 13.1 88 1023.5 0.0 N 0.0 0.0 0.0
00:04 15.1 13.1 88 1023.5 0.0 N 0.0 0.0 0.0
00:05 15.1 13.1 88 1023.5 0.0 N 0.0 0.0 0.0
00:06 15.1 13.1 88 1023.6 0.0 N 0.0 0.0 0.0
00:07 15.1 13.1 88 1023.5 0.0 N 0.0 0.0 0.0
00:08 15.1 13.1 88 1023.5 0.0 NE 0.0 0.0 0.0
00:09 15.1 13.1 88 1023.5 0.0 NE 0.0 0.0 0.0
00:10 15.1 13.1 88 1023.6 0.0 NE 0.0 0.0 0.0
00:11 15.1 13.1 88 1023.5 0.0 NE 0.0 0.0 0.0
00:12 15.1 13.1 88 1023.6 0.0 NE 0.0 0.0 0.0
00:13 15.1 13.1 88 1023.5 0.0 NE 0.0 0.0 0.0
00:14 15.1 13.1 88 1023.5 0.0 NE 0.0 0.0 0.0
00:15 15.1 13.1 88 1023.4 0.0 NE 0.0 0.0 0.0
00:16 15.1 13.1 88 1023.4 0.0 NE 0.0 0.0 0.0
00:17 15.1 13.1 88 1023.5 0.0 NE 0.0 0.0 0.0
00:18 15.1 13.3 89 1023.7 0.0 NE 0.0 0.0 0.0
00:19 15.1 13.1 88 1023.4 0.0 NE 0.0 0.0 0.0
00:20 15.1 13.1 88 1023.5 0.7 NE 0.7 0.0 0.0
00:21 15.1 13.3 89 1023.4 0.7 N 0.7 0.0 0.0
00:22 15.1 13.1 88 1023.4 1.6 NE 1.6 0.0 0.0
00:23 15.1 13.1 88 1023.3 0.7 NE 1.6 0.0 0.0
00:24 15.1 13.3 89 1023.4 1.6 N 1.6 0.0 0.0
00:25 15.1 13.3 89 1023.4 0.7 N 1.6 0.0 0.0
00:26 15.1 13.3 89 1023.4 0.7 N 1.6 0.0 0.0
00:27 15.1 13.3 89 1023.4 0.7 N 1.6 0.0 0.0
00:28 15.1 13.3 89 1023.4 0.7 N 1.6 0.0 0.0
00:29 15.1 13.3 89 1023.5 0.0 N 1.6 0.0 0.0
00:30 15.1 13.3 89 1023.4 0.7 NE 1.6 0.0 0.0
00:31 15.1 13.3 89 1023.3 0.7 NE 1.6 0.0 0.0
00:32 15.1 13.3 89 1023.5 0.0 NE 1.6 0.0 0.0
00:33 15.1 13.3 89 1023.3 0.0 NE 1.6 0.0 0.0
00:34 15.1 13.3 89 1023.3 0.0 NE 0.7 0.0 0.0
00:35 15.1 13.3 89 1023.4 0.0 NE 0.7 0.0 0.0
00:37 15.1 13.3 89 1023.4 0.0 NE 0.7 0.0 0.0
00:38 15.1 13.3 89 1023.3 0.0 NE 0.7 0.0 0.0
00:39 15.1 13.3 89 1023.4 0.0 NE 0.7 0.0 0.0
00:40 15.1 13.3 89 1023.2 0.0 NE 0.7 0.0 0.0
00:41 15.1 13.3 89 1023.3 0.0 NE 0.7 0.0 0.0
00:42 15.1 13.3 89 1023.3 0.0 NW 0.0 0.0 0.0
00:43 15.1 13.3 89 1023.4 0.0 NW 0.0 0.0 0.0
00:44 15.1 13.3 89 1023.5 0.0 NW 0.0 0.0 0.0
00:45 15.1 13.3 89 1023.3 0.0 N 0.0 0.0 0.0
00:46 15.1 13.3 89 1023.4 0.0 N 0.0 0.0 0.0
00:47 15.1 13.3 89 1023.4 0.0 N 0.0 0.0 0.0
00:48 15.1 13.3 89 1023.2 0.0 N 0.0 0.0 0.0
00:49 15.1 13.3 89 1023.4 0.0 N 0.0 0.0 0.0
00:50 15.1 13.3 89 1023.3 0.0 N 0.0 0.0 0.0
00:51 15.1 13.3 89 1023.3 0.0 N 0.0 0.0 0.0
00:52 15.1 13.3 89 1023.3 0.0 E 0.0 0.0 0.0
00:53 15.1 13.3 89 1023.3 0.7 E 0.7 0.0 0.0
00:54 15.1 13.3 89 1023.3 1.6 SE 1.6 0.0 0.0
00:55 15.1 13.3 89 1023.3 1.6 E 1.6 0.0 0.0
00:56 15.1 13.3 89 1023.3 0.7 E 1.6 0.0 0.0
00:57 15.1 13.3 89 1023.3 0.0 NW 1.6 0.0 0.0
00:58 15.2 13.4 89 1023.3 0.0 NW 1.6 0.0 0.0
00:59 15.1 13.3 89 1023.3 0.7 SW 1.6 0.0 0.0
01:00 15.1 13.3 89 1023.4 0.7 SW 1.6 0.0 0.0
01:01 15.1 13.3 89 1023.2 0.7 SW 1.6 0.0 0.0
01:02 15.1 13.3 89 1023.1 0.7 SW 1.6 0.0 0.0
01:03 15.1 13.3 89 1023.2 0.7 SW 1.6 0.0 0.0
01:04 15.1 13.3 89 1023.3 0.7 SW 1.6 0.0 0.0
01:05 15.1 13.3 89 1023.3 0.7 SW 0.7 0.0 0.0
01:06 15.1 13.3 89 1023.1 0.7 SW 0.7 0.0 0.0
01:07 15.1 13.3 89 1023.1 0.7 SW 0.7 0.0 0.0
01:08 15.1 13.3 89 1023.2 1.6 E 1.6 0.0 0.0
01:09 15.1 13.3 89 1023.3 0.7 NE 1.6 0.0 0.0
01:10 15.1 13.3 89 1023.1 0.0 NE 1.6 0.0 0.0
01:11 15.1 13.3 89 1023.2 0.0 NE 1.6 0.0 0.0
01:12 15.1 13.3 89 1023.0 0.0 NE 1.6 0.0 0.0
01:13 15.1 13.3 89 1023.1 0.0 NE 1.6 0.0 0.0
01:14 15.1 13.3 89 1023.1 0.7 NE 1.6 0.0 0.0
01:15 15.1 13.3 89 1023.1 0.7 NE 1.6 0.0 0.0
01:16 15.1 13.3 89 1023.1 0.7 NE 1.6 0.0 0.0
01:17 15.1 13.5 90 1023.0 0.7 SE 1.6 0.0 0.0
01:18 15.1 13.3 89 1023.0 1.6 SE 1.6 0.0 0.0
01:19 15.1 13.3 89 1023.2 0.7 SE 1.6 0.0 0.0
01:20 15.0 13.2 89 1023.2 0.0 SE 1.6 0.0 0.0
01:21 15.1 13.3 89 1023.0 0.0 SE 1.6 0.0 0.0
01:22 15.1 13.5 90 1023.2 0.0 SE 1.6 0.0 0.0
01:23 15.0 13.4 90 1023.2 0.0 SE 1.6 0.0 0.0
01:24 15.0 13.4 90 1023.1 0.0 SE 1.6 0.0 0.0
01:25 15.0 13.4 90 1023.1 0.0 SE 1.6 0.0 0.0
01:26 15.0 13.4 90 1022.9 0.0 SE 1.6 0.0 0.0
01:27 15.0 13.4 90 1023.1 0.0 SE 1.6 0.0 0.0
01:28 15.0 13.2 89 1023.1 0.0 SE 0.7 0.0 0.0
01:29 15.0 13.4 90 1023.2 0.0 SE 0.7 0.0 0.0
01:30 15.0 13.2 89 1023.0 1.6 E 1.6 0.0 0.0
01:31 15.0 13.4 90 1023.1 1.6 E 1.6 0.0 0.0
01:33 15.0 13.4 90 1023.2 2.2 SE 2.2 0.0 0.0
01:34 15.0 13.4 90 1023.1 2.2 SE 2.2 0.0 0.0
01:36 15.0 13.4 90 1023.3 1.6 SE 2.2 0.0 0.0
01:37 15.0 13.4 90 1023.1 3.1 SE 3.1 0.0 0.0
01:38 15.0 13.4 90 1023.1 2.2 SE 3.1 0.0 0.0
01:39 15.0 13.4 90 1023.0 2.2 SE 3.1 0.0 0.0
01:40 15.0 13.4 90 1023.0 2.2 SE 3.1 0.0 0.0
01:41 15.0 13.4 90 1023.1 3.1 SE 3.1 0.0 0.0
01:42 15.0 13.4 90 1023.0 3.8 SE 3.8 0.0 0.0
01:43 15.0 13.4 90 1023.0 3.8 SE 3.8 0.0 0.0
01:44 15.0 13.4 90 1023.0 3.1 SE 3.8 0.0 0.0
01:45 15.0 13.4 90 1023.0 2.2 E 3.8 0.0 0.0
01:46 15.0 13.4 90 1023.0 3.1 E 3.8 0.0 0.0
01:47 15.1 13.5 90 1022.9 1.6 E 3.8 0.0 0.0
01:48 15.1 13.5 90 1022.9 3.1 E 3.8 0.0 0.0
01:49 15.1 13.5 90 1023.0 3.8 E 3.8 0.0 0.0
01:50 15.1 13.5 90 1023.0 3.1 N 3.8 0.0 0.0
01:51 15.1 13.5 90 1022.9 3.8 SE 3.8 0.0 0.0
01:52 15.1 13.5 90 1022.8 3.1 E 3.8 0.0 0.0
01:53 15.1 13.5 90 1022.9 2.2 SE 3.8 0.0 0.0
01:54 15.1 13.5 90 1022.9 2.2 SE 3.8 0.0 0.0
01:55 15.1 13.5 90 1022.9 2.2 SE 3.8 0.0 0.0
01:56 15.1 13.5 90 1023.0 2.2 E 3.8 0.0 0.0
01:57 15.1 13.6 91 1023.0 3.1 SE 3.8 0.0 0.0
01:58 15.1 13.6 91 1023.0 3.1 SE 3.8 0.0 0.0
01:59 15.1 13.6 91 1023.0 2.2 SE 3.8 0.0 0.0
02:00 15.1 13.6 91 1023.0 3.1 S 3.8 0.0 0.0
02:02 15.1 13.6 91 1022.9 3.1 S 3.8 0.0 0.0
02:03 15.1 13.6 91 1023.0 3.1 S 3.8 0.0 0.0
02:04 15.1 13.6 91 1023.0 3.1 S 3.8 0.0 0.0
02:05 15.1 13.6 91 1022.9 3.1 S 3.8 0.0 0.0
02:07 15.1 13.6 91 1022.8 3.1 SE 3.1 0.0 0.0
02:08 15.1 13.6 91 1022.9 3.8 S 3.8 0.0 0.0
02:09 15.1 13.6 91 1022.9 3.1 SW 3.8 0.0 0.0
02:10 15.1 13.6 91 1023.0 3.8 SE 3.8 0.0 0.0
02:11 15.1 13.6 91 1022.9 3.8 SE 3.8 0.0 0.0
02:12 15.1 13.6 91 1022.9 4.5 SW 4.5 0.0 0.0
02:13 15.1 13.6 91 1022.9 3.8 SE 4.5 0.0 0.0
02:14 15.1 13.6 91 1022.8 3.1 SE 4.5 0.0 0.0
02:15 15.1 13.6 91 1022.8 3.1 SE 4.5 0.0 0.0
02:16 15.1 13.6 91 1022.9 3.1 SE 4.5 0.0 0.0
02:17 15.1 13.6 91 1023.0 5.4 E 5.4 0.0 0.0
02:18 15.1 13.6 91 1022.8 3.1 S 5.4 0.0 0.0
02:19 15.1 13.6 91 1022.9 3.1 SE 5.4 0.0 0.0
02:20 15.1 13.6 91 1022.8 3.8 SE 5.4 0.0 0.0
02:21 15.1 13.6 91 1022.9 3.1 S 5.4 0.0 0.0
02:22 15.1 13.6 91 1022.9 3.8 S 5.4 0.0 0.0
02:23 15.1 13.6 91 1022.8 3.8 SE 5.4 0.0 0.0
02:24 15.1 13.8 92 1022.9 3.1 E 5.4 0.0 0.0
02:25 15.1 13.8 92 1022.8 3.8 SSW 5.4 0.0 0.0
02:26 15.1 13.8 92 1022.8 3.1 SE 5.4 0.0 0.0
02:27 15.1 13.8 92 1022.8 3.8 S 5.4 0.0 0.0
02:28 15.1 13.8 92 1022.8 3.1 SE 4.5 0.0 0.0
02:29 15.1 13.8 92 1022.8 3.1 SE 4.5 0.0 0.0
02:30 15.1 13.8 92 1022.8 3.1 SE 4.5 0.0 0.0
02:31 15.1 13.8 92 1022.8 3.8 ESE 4.5 0.0 0.0
02:32 15.1 13.8 92 1022.9 3.8 SE 4.5 0.0 0.0
02:33 15.1 13.8 92 1022.9 3.8 SE 4.5 0.0 0.0
02:34 15.1 13.8 92 1022.7 3.8 SE 3.8 0.0 0.0
02:35 15.1 13.8 92 1022.9 3.1 S 3.8 0.0 0.0
02:36 15.1 13.8 92 1022.6 3.1 SE 3.8 0.0 0.0
02:37 15.1 13.8 92 1022.6 3.8 SE 3.8 0.0 0.0
02:38 15.1 13.8 92 1022.5 3.1 SE 3.8 0.0 0.0
02:39 15.1 13.8 92 1022.7 3.1 SE 3.8 0.0 0.0
02:40 15.1 13.8 92 1022.5 3.8 SE 3.8 0.0 0.0
02:41 15.1 13.8 92 1022.6 3.1 SE 3.8 0.0 0.0
02:42 15.1 13.8 92 1022.7 3.1 SE 3.8 0.0 0.0
02:44 15.1 13.8 92 1022.5 3.8 S 4.5 0.0 0.0
02:45 15.1 13.8 92 1022.6 3.8 SE 4.5 0.0 0.0
02:46 15.1 13.8 92 1022.8 3.8 S 4.5 0.0 0.0
02:47 15.1 13.8 92 1022.8 3.1 SE 4.5 0.0 0.0
02:48 15.1 13.8 92 1022.5 3.8 S 4.5 0.0 0.0
02:49 15.1 13.8 92 1022.6 3.8 SE 4.5 0.0 0.0
02:50 15.1 13.8 92 1022.5 3.1 S 4.5 0.0 0.0
02:51 15.1 13.8 92 1022.5 3.1 S 4.5 0.0 0.0
02:52 15.1 14.0 93 1022.7 3.1 SE 4.5 0.0 0.0
02:53 15.1 14.0 93 1022.7 3.1 SE 4.5 0.0 0.0
02:54 15.1 14.0 93 1022.5 3.1 S 4.5 0.0 0.0
02:55 15.1 14.0 93 1022.5 4.5 S 4.5 0.0 0.0
02:56 15.1 14.0 93 1022.7 3.1 SW 4.5 0.0 0.0
02:57 15.1 14.0 93 1022.5 3.8 S 4.5 0.0 0.0
02:58 15.1 14.0 93 1022.5 3.8 S 4.5 0.0 0.0
02:59 15.1 14.0 93 1022.5 3.8 W 4.5 0.0 0.0
03:00 15.1 14.0 93 1022.7 3.1 S 4.5 0.0 0.0
03:01 15.1 14.0 93 1022.5 3.1 S 4.5 0.0 0.0
03:02 15.1 14.0 93 1022.6 3.1 S 4.5 0.0 0.0
03:04 15.1 14.0 93 1022.6 3.1 S 4.5 0.0 0.0
03:05 15.1 14.0 93 1022.4 3.1 S 3.8 0.0 0.0
03:06 15.2 14.1 93 1022.3 3.8 SE 3.8 0.0 0.0
03:07 15.2 14.1 93 1022.5 2.2 S 3.8 0.0 0.0
03:08 15.2 14.1 93 1022.4 3.1 S 3.8 0.0 0.0
03:09 15.2 14.1 93 1022.3 4.5 S 4.5 0.0 0.0
03:11 15.2 14.1 93 1022.5 3.1 S 4.5 0.0 0.0
03:12 15.2 14.1 93 1022.5 3.1 S 4.5 0.0 0.0
03:13 15.2 14.1 93 1022.4 3.1 S 4.5 0.0 0.0
03:14 15.2 14.1 93 1022.4 3.1 SE 4.5 0.0 0.0
03:15 15.2 14.2 94 1022.4 2.2 SW 4.5 0.0 0.0
03:16 15.2 14.1 93 1022.4 3.1 S 4.5 0.0 0.0
03:17 15.2 14.1 93 1022.5 3.1 S 4.5 0.0 0.0
03:18 15.2 14.2 94 1022.5 3.1 S 4.5 0.0 0.0
03:19 15.2 14.2 94 1022.4 3.1 SE 3.8 0.0 0.0
03:20 15.2 14.2 94 1022.3 3.1 SSE 3.8 0.0 0.0
03:21 15.2 14.2 94 1022.4 3.1 SSE 3.8 0.0 0.0
03:22 15.3 14.3 94 1022.2 4.5 S 4.5 0.0 0.0
03:23 15.3 14.3 94 1022.5 3.8 S 4.5 0.0 0.0
03:24 15.3 14.3 94 1022.5 4.5 S 4.5 0.0 0.0
03:25 15.3 14.3 94 1022.4 4.5 S 4.5 0.0 0.0
03:26 15.3 14.3 94 1022.5 3.1 SE 4.5 0.0 0.0
03:27 15.3 14.3 94 1022.6 3.8 SE 4.5 0.0 0.0
03:28 15.3 14.3 94 1022.5 5.4 SSW 5.4 0.0 0.0
03:29 15.3 14.3 94 1022.5 4.5 SE 5.4 0.0 0.0
03:30 15.3 14.3 94 1022.3 4.5 S 5.4 0.0 0.0
03:31 15.3 14.3 94 1022.5 3.1 S 5.4 0.0 0.0
03:32 15.3 14.3 94 1022.4 4.5 SE 5.4 0.0 0.0
03:34 15.3 14.3 94 1022.4 3.8 SSW 5.4 0.0 0.0
03:35 15.3 14.3 94 1022.5 3.8 SE 5.4 0.0 0.0
03:36 15.3 14.3 94 1022.5 3.8 SE 5.4 0.0 0.0
03:37 15.3 14.3 94 1022.4 4.5 SW 5.4 0.0 0.0
03:38 15.3 14.3 94 1022.5 3.8 S 4.5 0.0 0.0
03:39 15.3 14.3 94 1022.4 3.8 SE 4.5 0.0 0.1
03:41 15.3 14.3 94 1022.5 6.0 S 6.0 0.8 0.1
03:42 15.3 14.3 94 1022.5 7.6 S 7.6 0.8 0.1
03:43 15.4 14.4 94 1022.5 9.8 S 9.8 0.8 0.1
03:44 15.4 14.6 95 1022.5 8.3 SW 9.8 0.8 0.1
03:45 15.4 14.6 95 1022.5 9.2 S 9.8 0.0 0.1
03:46 15.4 14.6 95 1022.4 7.6 S 9.8 0.0 0.1
03:47 15.4 14.6 95 1022.5 6.9 S 9.8 0.0 0.1
03:48 15.4 14.6 95 1022.4 6.0 S 9.8 0.8 0.1
03:49 15.4 14.6 95 1022.5 7.6 SE 9.8 0.8 0.1
03:50 15.4 14.6 95 1022.4 6.0 S 9.8 0.8 0.1
03:51 15.4 14.6 95 1022.4 5.4 S 9.8 0.8 0.1
03:52 15.4 14.6 95 1022.3 10.7 SW 10.7 0.8 0.1
03:53 15.4 14.6 95 1022.3 10.7 SW 10.7 0.0 0.1
03:54 15.3 14.5 95 1022.5 6.9 SW 10.7 0.0 0.1
03:55 15.4 14.6 95 1022.4 9.8 S 10.7 0.8 0.2
03:56 15.3 14.5 95 1022.5 9.8 SW 11.4 0.8 0.2
03:57 15.3 14.5 95 1022.5 9.2 SW 11.4 0.8 0.2
03:58 15.3 14.5 95 1022.4 6.9 SW 11.4 0.8 0.2
03:59 15.3 14.5 95 1022.5 6.9 S 11.4 0.8 0.2
04:00 15.3 14.5 95 1022.5 8.3 S 11.4 0.0 0.2
04:01 15.3 14.5 95 1022.5 8.3 S 11.4 0.0 0.2
04:02 15.3 14.5 95 1022.4 8.3 S 11.4 0.0 0.2
04:03 15.3 14.5 95 1022.4 8.3 S 11.4 0.0 0.2
04:04 15.1 14.3 95 1022.4 6.0 SE 11.4 0.0 0.2
04:05 15.1 14.3 95 1022.3 3.8 SE 11.4 0.0 0.2
04:06 15.1 14.3 95 1022.1 6.9 S 9.2 0.0 0.2
04:08 15.1 14.3 95 1022.4 6.0 S 8.3 0.0 0.2
04:09 15.0 14.2 95 1022.4 6.9 S 8.3 0.0 0.2
04:10 15.0 14.2 95 1022.4 3.8 SW 8.3 0.0 0.2
04:11 15.0 14.2 95 1022.4 5.4 S 8.3 0.0 0.2
04:12 15.0 14.2 95 1022.2 3.8 S 8.3 0.0 0.2
04:13 15.0 14.2 95 1022.3 6.0 S 8.3 0.0 0.2
04:14 14.9 14.1 95 1022.4 6.0 SSW 6.9 0.0 0.2
04:16 15.0 14.2 95 1022.3 5.4 S 6.9 0.0 0.2
04:17 14.9 14.1 95 1022.3 5.4 S 6.9 0.0 0.2
04:18 14.9 14.1 95 1022.3 6.0 S 6.9 0.0 0.2
04:19 14.9 14.1 95 1022.3 4.5 S 6.9 0.0 0.2
04:20 14.9 14.1 95 1022.5 5.4 S 6.0 0.0 0.2
04:21 14.8 14.0 95 1022.3 6.9 S 6.9 0.0 0.2
04:22 14.8 14.0 95 1022.3 5.4 S 6.9 0.0 0.2
04:23 14.8 14.0 95 1022.5 6.9 S 6.9 0.0 0.2
04:24 14.8 14.2 96 1022.2 6.0 SW 6.9 0.8 0.3
04:25 14.8 14.0 95 1022.2 6.9 SW 6.9 0.8 0.3
04:26 14.8 14.0 95 1022.3 6.0 SE 6.9 0.8 0.3
04:27 14.8 14.0 95 1022.3 6.0 SSW 6.9 0.8 0.3
04:28 14.7 13.9 95 1022.4 3.8 S 6.9 0.8 0.3
04:29 14.7 14.1 96 1022.2 3.1 S 6.9 0.0 0.3
04:30 14.7 13.9 95 1022.1 2.2 S 6.9 0.0 0.3
04:31 14.7 14.1 96 1022.2 3.8 S 6.9 0.0 0.3
04:32 14.7 14.1 96 1022.3 3.1 S 6.9 0.0 0.3
04:33 14.7 14.1 96 1022.1 2.2 S 6.9 0.0 0.3
04:34 14.7 14.1 96 1022.1 3.1 S 6.9 0.0 0.3
04:35 14.7 14.1 96 1021.9 2.2 S 6.9 0.0 0.3
04:36 14.7 14.1 96 1022.1 3.1 S 6.0 0.0 0.3
04:37 14.6 14.0 96 1022.0 3.1 SW 6.0 0.0 0.3
04:38 14.6 14.0 96 1022.1 2.2 S 4.5 0.0 0.3
04:39 14.6 14.0 96 1022.1 2.2 SE 3.8 0.0 0.3
04:40 14.6 14.0 96 1022.0 2.2 SE 3.8 0.0 0.3
04:41 14.6 14.0 96 1022.0 2.2 SE 3.8 0.0 0.3
04:42 14.6 14.0 96 1022.1 2.2 S 3.1 0.0 0.3
04:43 14.6 14.0 96 1022.1 2.2 SE 3.1 0.0 0.3
04:45 14.5 13.9 96 1022.0 3.1 SE 3.8 0.0 0.3
04:46 14.5 13.9 96 1022.2 3.8 S 3.8 0.0 0.3
04:47 14.5 13.9 96 1022.1 2.2 SE 3.8 0.0 0.3
04:48 14.5 13.9 96 1022.1 3.1 E 3.8 0.0 0.3
04:49 14.5 13.9 96 1022.0 2.2 SE 3.8 0.0 0.3
04:50 14.5 13.9 96 1022.1 3.1 SE 3.8 0.0 0.3
04:51 14.5 13.9 96 1022.1 2.2 SE 3.8 0.0 0.3
04:52 14.5 13.9 96 1022.1 3.1 SW 3.8 0.0 0.3
04:53 14.4 13.8 96 1021.9 3.8 SE 3.8 0.0 0.3
04:54 14.5 13.9 96 1022.0 3.1 SE 3.8 0.0 0.3
04:55 14.4 13.8 96 1022.0 3.1 E 3.8 0.0 0.3
04:56 14.5 13.9 96 1021.9 2.2 SE 3.8 0.0 0.3
04:57 14.5 13.9 96 1021.9 3.8 SE 3.8 0.0 0.3
04:58 14.5 13.9 96 1022.2 3.1 S 3.8 0.0 0.3
04:59 14.4 13.8 96 1022.1 3.8 SE 3.8 0.0 0.3
05:00 14.4 13.8 96 1022.1 3.1 S 3.8 0.0 0.3
05:01 14.4 13.8 96 1022.2 3.1 S 3.8 0.0 0.3
05:02 14.5 13.9 96 1022.2 3.1 SE 3.8 0.0 0.3
05:03 14.5 13.9 96 1022.1 3.1 SE 3.8 0.0 0.3
05:04 14.5 13.9 96 1022.2 2.2 SE 3.8 0.0 0.3
05:05 14.5 13.9 96 1022.2 2.2 SE 3.8 0.0 0.3
05:06 14.5 13.9 96 1022.1 3.8 E 3.8 0.0 0.3
05:07 14.5 13.9 96 1022.1 3.1 S 3.8 0.0 0.3
05:08 14.5 13.9 96 1022.1 3.8 SE 3.8 0.0 0.3
05:09 14.5 13.9 96 1022.2 3.1 SE 3.8 0.0 0.3
05:10 14.5 13.9 96 1022.1 4.5 S 4.5 0.0 0.3
05:12 14.5 13.9 96 1022.0 5.4 S 5.4 0.0 0.3
05:13 14.5 13.9 96 1022.1 4.5 S 5.4 0.0 0.3
05:14 14.5 13.9 96 1021.9 3.1 SE 5.4 0.0 0.3
05:15 14.5 13.9 96 1022.0 4.5 E 5.4 0.0 0.3
05:16 14.5 13.9 96 1021.8 4.5 SE 5.4 0.0 0.3
05:18 14.6 14.0 96 1021.9 4.5 S 5.4 0.0 0.3
05:19 14.6 14.0 96 1021.8 3.8 E 5.4 0.0 0.3
05:20 14.6 14.0 96 1021.8 4.5 NE 5.4 0.0 0.3
05:21 14.6 14.0 96 1022.0 3.8 SE 5.4 0.0 0.3
05:22 14.6 14.1 97 1021.8 4.5 SE 4.5 0.0 0.3
05:23 14.6 14.1 97 1021.7 3.8 SE 4.5 0.0 0.3
05:24 14.6 14.1 97 1021.8 6.0 SE 6.0 0.0 0.3
05:25 14.7 14.2 97 1022.0 3.8 SSE 6.0 0.0 0.3
05:26 14.7 14.2 97 1021.9 6.0 S 6.0 0.0 0.3
05:27 14.7 14.2 97 1021.8 5.4 SE 6.0 0.0 0.3
05:28 14.7 14.2 97 1021.8 3.8 SE 6.0 0.0 0.3
05:29 14.7 14.2 97 1021.9 5.4 SE 6.0 0.0 0.3
05:30 14.7 14.2 97 1021.9 5.4 SE 6.0 0.0 0.3
05:31 14.7 14.2 97 1021.9 5.4 SE 6.0 0.0 0.3
05:32 14.7 14.2 97 1021.9 3.8 SSE 6.0 0.0 0.3
05:33 14.8 14.3 97 1021.9 4.5 SE 6.0 0.0 0.3
05:34 14.8 14.3 97 1021.8 6.0 ESE 6.0 0.0 0.3
05:36 14.8 14.3 97 1021.8 6.9 SE 6.9 0.0 0.3
05:37 14.8 14.3 97 1021.9 5.4 SE 6.9 0.0 0.3
05:38 14.8 14.3 97 1021.7 7.6 SE 7.6 0.0 0.3
05:39 14.8 14.3 97 1021.8 6.0 SE 7.6 0.0 0.3
05:40 14.8 14.3 97 1021.8 6.0 S 7.6 0.0 0.3
05:41 14.9 14.4 97 1021.9 5.4 S 7.6 0.0 0.3
05:42 14.9 14.4 97 1021.7 6.9 SE 7.6 0.0 0.3
05:43 14.9 14.4 97 1021.8 5.4 E 7.6 0.0 0.3
05:44 14.9 14.4 97 1021.7 4.5 SE 7.6 0.0 0.3
05:45 14.9 14.4 97 1021.7 6.9 SE 7.6 0.0 0.3
05:46 14.9 14.4 97 1021.6 6.9 E 7.6 0.0 0.3
05:47 15.0 14.5 97 1021.6 8.3 SE 8.3 0.0 0.3
05:48 14.9 14.4 97 1021.5 5.4 SE 8.3 0.0 0.3
05:49 14.9 14.4 97 1021.7 6.0 SE 8.3 0.0 0.3
05:50 15.0 14.5 97 1021.6 6.0 SE 8.3 0.0 0.3
05:51 15.0 14.5 97 1021.7 5.4 S 8.3 0.0 0.3
05:52 14.9 14.6 98 1021.8 6.0 SE 8.3 0.0 0.3
05:53 14.9 14.6 98 1021.8 6.0 SE 8.3 0.0 0.3
05:54 15.0 14.7 98 1021.6 4.5 SE 8.3 0.0 0.3
05:55 15.0 14.7 98 1021.6 6.0 SE 8.3 0.0 0.3
05:56 15.0 14.7 98 1021.5 5.4 SE 8.3 0.0 0.3
05:58 15.0 14.7 98 1021.6 6.9 SE 8.3 0.0 0.3
05:59 15.0 14.7 98 1021.7 6.0 SE 8.3 0.0 0.3
06:00 15.0 14.7 98 1021.7 7.6 SE 8.3 0.0 0.3
06:01 15.0 14.7 98 1021.6 7.6 SE 8.3 0.0 0.3
06:02 15.0 14.7 98 1021.6 7.6 SE 8.3 0.0 0.3
06:03 15.0 14.7 98 1021.6 7.6 SE 8.3 0.0 0.3
06:04 15.0 14.7 98 1021.5 5.4 SE 7.6 0.0 0.3
06:05 15.0 14.7 98 1021.7 6.0 NE 7.6 0.0 0.3
06:06 15.0 14.7 98 1021.7 8.3 SE 8.3 0.0 0.3
06:07 15.0 14.7 98 1021.5 6.0 SE 8.3 0.0 0.3
06:08 15.0 14.7 98 1021.6 7.6 SE 8.3 0.0 0.3
06:09 15.0 14.7 98 1021.7 6.0 SE 8.3 0.0 0.3
06:10 15.0 14.7 98 1021.7 6.9 SE 8.3 0.0 0.3
06:11 15.0 14.7 98 1021.5 7.6 SE 8.3 0.0 0.3
06:12 15.0 14.7 98 1021.6 6.9 SE 8.3 0.0 0.3
06:13 15.0 14.7 98 1021.6 6.0 SE 8.3 0.0 0.3
06:14 15.0 14.7 98 1021.6 9.8 SE 9.8 0.0 0.3
06:15 15.0 14.7 98 1021.6 7.6 SE 9.8 0.0 0.3
06:16 15.0 14.7 98 1021.6 4.5 SE 9.8 0.0 0.3
06:18 15.1 14.8 98 1021.6 7.6 SE 9.8 0.0 0.3
06:19 15.1 14.8 98 1021.5 6.0 SE 9.8 0.0 0.3
06:20 15.1 14.8 98 1021.7 7.6 SE 9.8 0.0 0.3
06:21 15.1 14.8 98 1021.5 6.9 SE 9.8 0.0 0.3
06:22 15.1 14.8 98 1021.5 6.9 SE 9.8 0.0 0.3
06:23 15.1 14.8 98 1021.6 7.6 SE 9.8 0.0 0.3
06:24 15.1 14.8 98 1021.6 6.0 SE 9.8 0.0 0.3
06:25 15.1 14.8 98 1021.6 4.5 NW 9.2 0.0 0.3
06:26 15.1 14.8 98 1021.6 6.9 SE 9.2 0.0 0.3
06:27 15.1 15.0 99 1021.6 6.9 SE 9.2 0.0 0.3
06:28 15.1 15.0 99 1021.7 8.3 E 8.3 0.0 0.3
06:29 15.1 15.0 99 1021.8 7.6 SE 8.3 0.0 0.3
06:30 15.2 15.1 99 1021.6 7.6 S 8.3 0.0 0.3
06:31 15.2 15.1 99 1021.7 6.0 SE 8.3 0.0 0.3
06:32 15.2 15.1 99 1021.6 5.4 S 8.3 0.0 0.3
06:33 15.2 15.1 99 1021.6 6.0 S 8.3 0.0 0.3
06:34 15.2 15.1 99 1021.7 10.7 SE 10.7 0.8 0.3
06:35 15.2 15.1 99 1021.5 7.6 SE 10.7 0.8 0.3
06:36 15.2 15.1 99 1021.5 7.6 SE 10.7 0.8 0.3
06:37 15.2 15.1 99 1021.6 8.3 SSE 10.7 0.8 0.3
06:38 15.2 15.1 99 1021.5 6.9 S 10.7 0.8 0.3
06:39 15.2 15.1 99 1021.5 6.9 S 10.7 0.0 0.3
06:40 15.2 15.1 99 1021.6 6.0 SSE 10.7 0.0 0.3
06:41 15.2 15.1 99 1021.5 8.3 E 10.7 0.0 0.3
06:42 15.2 15.1 99 1021.4 7.6 S 10.7 0.0 0.3
06:43 15.2 15.1 99 1021.5 9.2 SE 10.7 0.0 0.3
06:44 15.2 15.1 99 1021.5 6.9 SE 10.7 0.0 0.3
06:46 15.3 15.2 99 1021.7 8.3 SE 9.2 0.0 0.3
06:47 15.3 15.2 99 1021.5 7.6 SE 9.2 0.0 0.3
06:48 15.3 15.2 99 1021.5 6.9 S 9.2 0.0 0.3
06:49 15.3 15.2 99 1021.6 7.6 SE 9.2 0.0 0.3
06:50 15.3 15.2 99 1021.6 7.6 SE 9.2 0.0 0.3
06:51 15.3 15.2 99 1021.4 8.3 S 9.2 0.0 0.3
06:52 15.4 15.3 99 1021.5 8.3 SE 9.2 0.0 0.3
06:53 15.3 15.2 99 1021.4 9.2 SE 9.2 0.0 0.3
06:54 15.3 15.2 99 1021.5 7.6 S 9.2 0.0 0.3
06:55 15.4 15.3 99 1021.6 6.0 S 9.2 0.0 0.3
06:56 15.4 15.3 99 1021.5 6.0 SE 9.2 0.0 0.3
06:57 15.4 15.3 99 1021.4 7.6 SE 9.2 0.0 0.3
06:58 15.4 15.3 99 1021.6 8.3 S 9.2 0.0 0.3
06:59 15.4 15.3 99 1021.6 7.6 SE 9.8 0.8 0.4
07:00 15.4 15.3 99 1021.6 7.6 SE 9.8 0.8 0.4
07:01 15.4 15.3 99 1021.6 7.6 SE 9.8 0.8 0.4
07:02 15.4 15.3 99 1021.5 7.6 SE 9.8 0.8 0.4
07:03 15.4 15.3 99 1021.6 7.6 SE 9.8 0.8 0.4
07:04 15.4 15.3 99 1021.5 7.6 SE 9.8 0.0 0.4
07:05 15.4 15.3 99 1021.5 7.6 SE 9.8 0.0 0.4
07:06 15.5 15.4 99 1021.6 9.8 SE 9.8 0.0 0.4
07:07 15.5 15.4 99 1021.7 17.4 SE 17.4 0.8 0.4
07:08 15.5 15.4 99 1021.6 13.0 SE 17.4 0.8 0.4
07:09 15.5 15.4 99 1021.6 13.0 SE 17.4 0.8 0.4
07:10 15.5 15.4 99 1021.6 10.7 SE 17.4 0.8 0.4
07:11 15.5 15.4 99 1021.6 6.9 SE 17.4 0.8 0.4
07:12 15.5 15.4 99 1021.6 8.3 SE 17.4 0.0 0.4
07:13 15.5 15.4 99 1021.6 9.8 S 17.4 0.0 0.4
07:14 15.5 15.4 99 1021.7 13.0 SE 17.4 0.0 0.4
07:15 15.5 15.4 99 1021.6 9.8 S 17.4 0.0 0.4
07:16 15.5 15.4 99 1021.4 9.8 SE 17.4 0.0 0.4
07:17 15.5 15.4 99 1021.6 10.7 SE 17.4 0.0 0.4
07:18 15.5 15.4 99 1021.6 10.7 SE 13.0 0.0 0.4
07:19 15.5 15.4 99 1021.5 9.2 SE 13.0 0.0 0.4
07:20 15.6 15.5 99 1021.5 12.1 SE 13.0 0.0 0.4
07:21 15.5 15.4 99 1021.6 10.7 SE 13.0 0.0 0.4
07:22 15.6 15.5 99 1021.5 9.2 S 13.0 0.0 0.4
07:23 15.5 15.4 99 1021.4 13.6 E 13.6 0.0 0.4
07:25 15.6 15.5 99 1021.5 8.3 SE 13.6 0.0 0.4
07:26 15.6 15.5 99 1021.7 7.6 SE 13.6 0.0 0.4
07:27 15.6 15.5 99 1021.4 12.1 S 13.6 0.0 0.4
07:28 15.6 15.5 99 1021.6 11.4 SE 13.6 0.0 0.4
07:29 15.5 15.4 99 1021.5 12.1 SE 13.6 0.0 0.5
07:30 15.6 15.5 99 1021.6 11.4 SE 13.6 0.8 0.5
07:31 15.6 15.5 99 1021.4 8.3 SW 13.6 0.8 0.5
07:32 15.6 15.5 99 1021.4 8.3 SE 13.6 0.8 0.5
07:33 15.6 15.5 99 1021.5 8.3 SE 12.1 0.8 0.5
07:34 15.6 15.5 99 1021.4 11.4 SE 12.1 0.8 0.5
07:35 15.6 15.5 99 1021.4 9.8 SE 12.1 0.0 0.6
07:36 15.6 15.5 99 1021.5 12.1 S 12.1 0.8 0.6
07:37 15.6 15.5 99 1021.5 12.1 S 12.1 0.8 0.6
07:38 15.6 15.5 99 1021.4 11.4 S 12.1 0.8 0.6
07:39 15.6 15.5 99 1021.5 12.1 S 12.1 0.8 0.6
07:40 15.6 15.5 99 1021.4 13.0 SW 13.0 0.8 0.6
07:41 15.6 15.5 99 1021.5 13.0 SE 13.0 0.0 0.6
07:42 15.6 15.5 99 1021.5 8.3 SE 13.0 0.0 0.6
07:43 15.6 15.5 99 1021.3 13.0 SE 13.0 0.0 0.6
07:44 15.6 15.5 99 1021.4 12.1 SE 13.0 0.0 0.6
07:45 15.6 15.5 99 1021.3 9.2 SE 13.0 0.0 0.6
07:47 15.6 15.5 99 1021.4 9.8 SSE 13.0 0.8 0.6
07:48 15.6 15.5 99 1021.5 7.6 SE 13.0 0.8 0.6
07:49 15.6 15.5 99 1021.4 12.1 S 13.0 0.8 0.6
07:50 15.6 15.5 99 1021.3 10.7 SE 13.0 0.8 0.6
07:51 15.6 15.5 99 1021.3 9.8 S 13.0 0.0 0.6
07:52 15.6 15.5 99 1021.4 8.3 S 13.0 0.0 0.6
07:53 15.7 15.6 99 1021.3 9.2 S 12.1 0.0 0.7
07:54 15.6 15.5 99 1021.4 7.6 SE 12.1 0.8 0.7
07:55 15.7 15.6 99 1021.4 10.7 S 12.1 0.8 0.7
07:56 15.7 15.6 99 1021.4 10.7 S 12.1 0.8 0.7
07:57 15.7 15.6 99 1021.5 10.7 SE 12.1 0.8 0.7
07:58 15.7 15.6 99 1021.3 9.2 S 12.1 0.8 0.7
07:59 15.7 15.6 99 1021.4 8.3 S 12.1 0.0 0.7
08:00 15.6 15.5 99 1021.5 13.6 SE 13.6 0.0 0.7
08:01 15.6 15.5 99 1021.3 13.6 SE 13.6 0.0 0.7
08:02 15.6 15.5 99 1021.4 9.8 SE 13.6 0.0 0.7
08:03 15.6 15.5 99 1021.4 13.6 S 13.6 0.0 0.7
08:04 15.6 15.5 99 1021.4 11.4 E 13.6 0.0 0.7
08:05 15.6 15.5 99 1021.3 11.4 SE 13.6 0.0 0.7
08:06 15.6 15.5 99 1021.4 11.4 S 13.6 0.0 0.7
08:08 15.6 15.5 99 1021.4 9.2 SE 13.6 0.0 0.7
08:09 15.6 15.5 99 1021.4 13.0 SE 13.6 0.0 0.7
08:10 15.6 15.5 99 1021.4 9.2 SE 13.6 0.0 0.7
08:11 15.6 15.5 99 1021.4 13.6 S 13.6 0.0 0.7
08:12 15.6 15.5 99 1021.2 12.1 S 13.6 0.0 0.7
08:13 15.6 15.5 99 1021.3 11.4 S 13.6 0.0 0.7
08:14 15.6 15.5 99 1021.3 10.7 S 13.6 0.0 0.7
08:15 15.6 15.5 99 1021.3 10.7 SE 13.6 0.0 0.7
08:16 15.6 15.5 99 1021.3 11.4 S 13.6 0.0 0.7
08:17 15.6 15.5 99 1021.3 15.2 S 15.2 0.0 0.7
08:18 15.6 15.5 99 1021.4 13.6 SE 15.2 0.0 0.7
08:19 15.6 15.5 99 1021.5 13.6 S 15.2 0.0 0.7
08:20 15.6 15.5 99 1021.3 9.8 S 15.2 0.8 0.8
08:21 15.6 15.5 99 1021.3 15.2 SE 15.2 0.8 0.8
08:22 15.6 15.5 99 1021.3 12.1 S 15.2 0.8 0.8
08:23 15.6 15.5 99 1021.3 11.4 SE 15.2 0.8 0.8
08:24 15.6 15.5 99 1021.3 13.0 SE 15.2 0.8 0.8
08:26 15.6 15.5 99 1021.3 15.9 S 15.9 0.0 0.8
08:27 15.6 15.5 99 1021.3 13.0 SE 15.9 0.0 0.8
08:28 15.6 15.5 99 1021.4 12.1 S 15.9 0.0 0.8
08:29 15.6 15.5 99 1021.3 12.1 E 15.9 0.0 0.8
08:30 15.6 15.5 99 1021.3 13.0 S 15.9 0.8 0.8
08:31 15.6 15.5 99 1021.4 12.1 S 15.9 0.8 0.8
08:32 15.6 15.5 99 1021.3 9.2 S 15.9 0.8 0.8
08:33 15.6 15.5 99 1021.3 10.7 S 15.9 0.8 0.8
08:34 15.6 15.5 99 1021.3 12.1 S 15.9 0.8 0.8
08:35 15.7 15.6 99 1021.2 11.4 SE 15.9 0.8 0.9
08:36 15.7 15.6 99 1021.1 11.4 SE 13.6 0.8 0.9
08:37 15.7 15.6 99 1021.3 9.2 SSW 13.6 0.8 0.9
08:38 15.7 15.6 99 1021.2 10.7 E 13.6 0.8 0.9
08:39 15.7 15.6 99 1021.3 10.7 S 13.6 0.8 0.9
08:40 15.7 15.6 99 1021.2 13.0 E 13.6 0.0 0.9
08:41 15.7 15.6 99 1021.2 13.0 E 13.6 0.8 0.9
08:42 15.7 15.6 99 1021.3 11.4 SE 13.0 0.8 0.9
08:43 15.8 15.7 99 1021.2 14.5 S 14.5 0.8 0.9
08:44 15.8 15.7 99 1021.3 11.4 S 14.5 0.8 0.9
08:45 15.8 15.7 99 1021.3 13.6 S 14.5 0.8 0.9
08:46 15.8 15.7 99 1021.3 12.1 SE 14.5 0.0 0.9
08:47 15.8 15.7 99 1021.2 10.7 S 14.5 0.8 1.0
08:48 15.8 15.7 99 1021.1 13.6 SSE 14.5 0.8 1.0
08:49 15.8 15.7 99 1021.2 10.7 SE 14.5 0.8 1.0
08:51 15.8 15.7 99 1021.1 13.6 S 14.5 1.5 1.1
08:52 15.8 15.7 99 1021.2 10.7 S 14.5 0.8 1.1
08:53 15.8 15.7 99 1021.1 11.4 SE 14.5 0.8 1.1
08:54 15.9 15.8 99 1021.2 14.5 SE 14.5 1.5 1.1
08:55 15.9 15.8 99 1021.1 10.7 S 14.5 0.8 1.1
08:56 15.8 15.7 99 1021.0 15.2 SE 15.2 0.8 1.1
08:57 15.9 15.8 99 1021.1 10.7 SE 15.2 0.8 1.2
08:58 15.9 15.8 99 1021.1 14.5 SE 15.2 1.5 1.2
08:59 15.9 15.8 99 1021.1 13.6 S 15.2 0.8 1.2
09:00 15.9 15.8 99 1020.9 15.2 SW 15.2 0.8 1.2
09:01 15.9 15.8 99 1021.1 15.2 SW 15.2 0.8 1.2
09:02 15.9 15.8 99 1021.0 14.5 SE 15.2 0.8 1.2
09:03 15.9 15.8 99 1021.1 12.1 SE 15.2 0.0 1.2
09:04 15.9 15.8 99 1021.0 10.7 S 15.2 0.8 1.3
09:05 15.9 15.8 99 1020.9 10.7 S 15.2 0.8 1.3
09:06 15.9 15.8 99 1021.1 10.7 SE 15.2 0.8 1.3
09:07 15.9 15.8 99 1021.0 15.2 SE 15.2 1.5 1.3
09:08 15.9 15.8 99 1020.9 14.5 SE 15.2 1.5 1.3
09:09 15.9 15.8 99 1021.0 14.5 S 15.2 0.8 1.3
09:10 15.9 15.8 99 1021.0 13.0 SE 15.2 0.8 1.3
09:11 15.9 15.8 99 1020.9 13.0 S 15.2 1.5 1.4
09:12 15.9 15.8 99 1021.0 12.1 S 15.2 0.8 1.4
09:13 15.9 15.8 99 1021.0 13.0 S 15.2 0.8 1.4
09:14 15.9 15.8 99 1020.9 10.7 SW 15.2 1.5 1.4
09:15 15.9 15.8 99 1021.0 12.1 SE 15.2 1.5 1.4
09:16 15.9 15.8 99 1021.0 10.7 SE 15.2 0.8 1.4
09:17 15.9 15.8 99 1020.9 9.8 NE 15.2 1.5 1.5
09:18 15.9 15.8 99 1020.9 15.2 SE 15.2 2.3 1.6
09:20 16.0 15.9 99 1020.9 13.6 SE 15.2 1.5 1.6
09:21 16.0 15.9 99 1020.9 13.0 S 15.2 2.3 1.6
09:22 16.0 15.9 99 1020.9 13.6 S 15.2 2.3 1.7
09:23 16.0 15.9 99 1020.9 13.6 S 15.2 1.5 1.7
09:24 16.0 15.9 99 1020.9 10.7 SE 15.2 1.5 1.7
09:25 16.0 15.9 99 1021.0 17.4 SE 17.4 1.5 1.8
09:26 16.0 15.9 99 1020.9 13.6 SE 17.4 1.5 1.8
09:27 16.0 15.9 99 1020.9 11.4 S 17.4 0.8 1.8
09:28 16.0 15.9 99 1020.8 11.4 S 17.4 0.8 1.8
09:29 16.0 15.9 99 1020.8 11.4 S 17.4 1.5 1.8
09:30 16.0 15.9 99 1020.8 8.3 S 17.4 1.5 1.8
09:31 16.0 15.9 99 1020.9 10.7 S 17.4 0.8 1.8
09:32 16.0 15.9 99 1020.9 15.9 SW 17.4 0.8 1.8
09:33 16.1 16.0 99 1020.9 11.4 SE 17.4 0.8 1.8
09:34 16.1 16.0 99 1020.9 10.7 S 17.4 0.8 1.9
09:35 16.1 16.0 99 1020.8 10.7 SE 17.4 0.8 1.9
09:36 16.1 16.0 99 1020.8 10.7 S 15.9 0.8 1.9
09:37 16.0 15.9 99 1020.8 14.5 S 15.9 1.5 2.0
09:38 16.1 16.0 99 1021.0 13.6 SE 15.9 1.5 2.0
09:39 16.0 15.9 99 1020.8 13.0 E 15.9 0.8 2.0
09:40 16.0 15.9 99 1021.1 13.6 SE 15.9 0.8 2.0
09:41 16.0 15.9 99 1021.1 14.5 E 15.9 1.5 2.0
09:42 16.0 15.9 99 1021.1 13.0 SE 14.5 0.8 2.0
09:43 16.0 15.9 99 1021.0 12.1 S 14.5 1.5 2.1
09:45 16.0 15.9 99 1021.2 16.8 S 16.8 1.5 2.1
09:46 16.0 15.9 99 1021.0 13.6 S 16.8 1.5 2.1
09:47 16.1 16.0 99 1020.9 12.1 SE 16.8 1.5 2.1
09:48 16.0 15.9 99 1021.0 13.0 S 16.8 0.8 2.2
09:49 16.1 16.0 99 1021.0 14.5 S 16.8 1.5 2.2
09:50 16.1 16.0 99 1020.9 13.6 S 16.8 1.5 2.2
09:51 16.1 16.0 99 1020.9 11.4 S 16.8 1.5 2.3
09:52 16.0 15.9 99 1021.0 10.7 S 16.8 1.5 2.3
09:53 16.1 16.0 99 1020.9 12.1 SE 16.8 2.3 2.3
09:54 16.1 16.0 99 1021.0 16.8 S 16.8 1.5 2.4
09:55 16.1 16.0 99 1021.0 16.8 SE 16.8 2.3 2.4
09:56 16.1 16.0 99 1020.8 13.6 S 16.8 2.3 2.5
09:57 16.1 16.0 99 1021.0 11.4 E 16.8 2.3 2.5
09:58 16.1 16.0 99 1020.9 12.1 S 16.8 2.3 2.6
09:59 16.1 16.0 99 1020.8 12.1 S 16.8 3.0 2.6
10:00 16.1 16.0 99 1020.9 15.2 S 16.8 3.0 2.6
10:01 16.1 16.0 99 1020.8 15.2 S 16.8 2.3 2.6
10:02 16.1 16.0 99 1020.8 15.2 S 16.8 2.3 2.6
10:03 16.1 16.0 99 1021.1 15.2 S 16.8 1.5 2.6
10:04 16.1 16.0 99 1020.8 15.2 S 16.8 0.8 2.6
10:06 16.1 16.0 99 1020.7 13.6 S 15.2 0.0 3.0
10:07 16.1 16.0 99 1020.8 10.7 S 15.2 3.8 3.0
10:08 16.1 16.0 99 1020.8 14.5 SE 15.2 4.5 3.0
10:09 16.1 16.0 99 1020.9 9.2 S 15.2 5.3 3.1
10:10 16.1 16.0 99 1020.8 17.4 SE 17.4 6.0 3.2
10:11 16.0 15.9 99 1020.8 13.6 SE 17.4 6.8 3.3
10:12 16.1 16.0 99 1020.8 13.0 SE 17.4 3.8 3.3
10:13 16.0 15.9 99 1020.7 15.9 E 17.4 3.8 3.3
10:14 16.0 15.9 99 1020.9 13.0 S 17.4 3.0 3.3
10:15 16.0 15.9 99 1020.8 15.9 S 17.4 3.0 3.5
10:16 16.0 15.9 99 1020.7 11.4 SE 17.4 3.0 3.5
10:17 16.0 15.9 99 1020.7 11.4 SE 17.4 2.3 3.5
10:18 16.0 15.9 99 1020.7 11.4 S 17.4 1.5 3.5
10:19 16.0 15.9 99 1020.8 8.3 SE 17.4 2.3 3.5
10:20 16.0 15.9 99 1020.7 15.9 SE 17.4 1.5 3.5
10:21 16.0 15.9 99 1020.8 14.5 SE 15.9 1.5 3.6
10:22 16.0 15.9 99 1020.8 12.1 SE 16.8 2.3 3.7
10:23 15.9 15.8 99 1020.7 19.0 SE 19.0 3.8 3.8
10:25 16.0 15.9 99 1020.7 10.7 SE 19.0 3.8 3.8
10:27 15.9 15.8 99 1020.8 13.0 SSE 19.0 4.5 4.0
10:28 15.9 15.8 99 1020.6 15.9 SE 19.0 3.8 4.1
10:29 15.9 15.8 99 1020.5 15.2 SE 19.0 3.0 4.2
10:30 15.9 15.8 99 1020.5 13.0 S 19.0 4.5 4.2
10:31 15.9 15.8 99 1020.5 18.3 SE 19.0 5.3 4.4
10:32 15.9 15.8 99 1020.6 11.4 SE 19.0 4.5 4.4
10:33 15.9 15.8 99 1020.5 11.4 SSW 18.3 3.8 4.5
10:34 15.9 15.8 99 1020.3 13.0 S 18.3 4.5 4.5
10:35 15.9 15.8 99 1020.3 12.1 SE 18.3 3.0 4.5
10:36 15.9 15.8 99 1020.3 12.1 SE 18.3 2.3 4.5
10:37 15.9 15.8 99 1020.3 12.1 SE 18.3 1.5 4.5
10:38 15.9 15.8 99 1020.4 12.1 SE 18.3 1.5 4.6
10:39 15.9 15.8 99 1020.4 16.8 S 18.3 1.5 4.6
10:40 15.9 15.8 99 1020.3 13.6 SE 18.3 1.5 4.6
10:41 15.9 15.8 99 1020.4 13.0 S 18.3 0.8 4.6
10:42 15.9 15.8 99 1020.3 16.8 SE 16.8 1.5 4.7
10:43 15.9 15.8 99 1020.4 15.2 S 16.8 1.5 4.7
10:44 15.9 15.8 99 1020.4 10.7 S 16.8 0.8 4.7
10:45 15.9 15.8 99 1020.3 12.1 SE 16.8 0.8 4.7
10:46 15.9 15.8 99 1020.4 15.9 E 16.8 0.8 4.7
10:47 15.9 15.8 99 1020.4 15.9 SE 16.8 0.8 4.7
10:48 15.9 15.8 99 1020.4 19.0 SE 19.0 0.8 4.7
10:49 15.9 15.8 99 1020.4 16.8 SE 19.0 0.8 4.7
10:51 15.9 15.8 99 1020.3 16.8 SE 19.0 0.8 4.7
10:52 16.0 15.9 99 1020.2 12.1 S 19.0 0.0 4.7
10:53 16.0 15.9 99 1020.2 13.6 S 19.0 0.0 4.7
10:54 16.0 15.9 99 1020.3 20.6 SE 20.6 0.0 4.8
10:55 16.1 16.0 99 1020.3 14.5 ESE 20.6 0.8 4.8
10:56 16.0 15.9 99 1020.3 12.1 SE 20.6 0.8 4.8
10:57 16.0 15.9 99 1020.5 15.9 S 20.6 0.8 4.9
10:58 16.1 16.0 99 1020.4 15.9 SW 20.6 1.5 4.9
10:59 16.0 15.9 99 1020.3 16.8 SE 20.6 1.5 4.9
11:00 16.0 15.9 99 1020.4 16.8 SE 20.6 0.8 4.9
11:01 16.0 15.9 99 1020.3 16.8 SE 20.6 0.8 4.9
11:02 16.1 16.0 99 1020.4 12.1 SE 20.6 3.0 5.0
11:03 16.1 16.0 99 1020.3 9.8 SE 20.6 2.3 5.1
11:04 16.1 16.0 99 1020.2 9.8 S 16.8 3.0 5.1
11:05 16.1 16.0 99 1020.2 12.1 SE 16.8 3.0 5.1
11:07 16.1 16.0 99 1020.3 13.0 SE 16.8 0.8 5.1
11:08 16.2 16.1 99 1020.3 15.2 SE 16.8 0.8 5.2
11:09 16.2 16.1 99 1020.4 14.5 S 16.8 0.8 5.2
11:10 16.2 16.1 99 1020.3 13.0 SE 16.8 1.5 5.2
11:11 16.3 16.2 99 1020.3 15.2 SE 16.8 2.3 5.4
11:12 16.2 16.1 99 1020.4 13.0 S 15.2 3.0 5.4
11:13 16.3 16.2 99 1020.3 9.8 S 15.2 3.0 5.4
11:14 16.3 16.2 99 1020.3 14.5 S 15.2 3.8 5.5
11:15 16.3 16.2 99 1020.2 8.3 S 15.2 3.8 5.6
11:16 16.3 16.2 99 1020.1 16.8 S 16.8 3.8 5.7
11:17 16.3 16.2 99 1020.1 16.8 S 16.8 3.8 5.7
11:18 16.3 16.2 99 1020.2 10.7 S 16.8 4.5 5.7
11:19 16.3 16.2 99 1020.4 11.4 SE 16.8 3.8 5.8
11:20 16.3 16.2 99 1020.3 11.4 SW 16.8 3.8 5.9
11:21 16.3 16.2 99 1020.3 15.2 SW 16.8 3.0 5.9
11:22 16.4 16.3 99 1020.3 11.4 SE 16.8 3.0 5.9
11:23 16.3 16.2 99 1020.3 6.9 SE 16.8 2.3 5.9
11:25 16.4 16.3 99 1020.2 16.8 SSW 16.8 1.5 6.0
11:26 16.4 16.3 99 1020.1 13.6 S 16.8 1.5 6.0
11:27 16.4 16.3 99 1020.2 17.4 S 17.4 1.5 6.1
11:28 16.4 16.3 99 1020.2 13.0 SSE 17.4 2.3 6.1
11:29 16.4 16.3 99 1020.2 11.4 SE 17.4 1.5 6.2
11:30 16.4 16.3 99 1020.1 14.5 SE 17.4 3.0 6.2
11:31 16.4 16.3 99 1020.1 14.5 SE 17.4 3.8 6.4
11:32 16.4 16.3 99 1020.1 15.9 S 17.4 3.8 6.4
11:33 16.4 16.3 99 1020.0 13.6 S 17.4 3.8 6.5
11:34 16.4 16.3 99 1020.1 14.5 SE 17.4 4.5 6.5
11:35 16.4 16.3 99 1020.1 14.5 SE 17.4 3.8 6.6
11:36 16.4 16.3 99 1020.0 13.6 S 17.4 3.8 6.6
11:37 16.4 16.3 99 1020.0 15.2 SW 17.4 3.0 6.6
11:38 16.4 16.3 99 1019.9 13.6 SE 15.9 2.3 6.6
11:39 16.4 16.3 99 1020.1 15.2 SE 15.9 2.3 6.7
11:40 16.3 16.2 99 1019.9 13.0 S 15.9 1.5 6.7
11:41 16.4 16.3 99 1020.1 14.5 S 17.4 0.8 6.7
11:42 16.4 16.3 99 1019.9 14.5 S 17.4 0.8 6.7
11:43 16.4 16.3 99 1019.8 13.6 S 17.4 1.5 6.7
11:45 16.4 16.3 99 1020.2 15.2 SE 17.4 0.8 6.7
11:46 16.4 16.3 99 1020.1 18.3 S 18.3 0.8 6.7
11:47 16.4 16.3 99 1020.2 13.0 SE 18.3 0.8 6.7
11:48 16.4 16.3 99 1019.9 15.9 SE 18.3 0.0 6.7
11:49 16.4 16.3 99 1020.1 11.4 S 18.3 0.0 6.7
11:50 16.4 16.3 99 1020.1 15.9 SSW 18.3 0.0 6.7
11:51 16.4 16.3 99 1020.0 9.8 S 18.3 0.0 6.7
11:52 16.4 16.3 99 1020.2 10.7 SSE 18.3 0.0 6.7
11:53 16.4 16.3 99 1019.9 20.6 S 20.6 0.0 6.7
11:54 16.4 16.3 99 1020.0 15.2 S 20.6 0.0 6.7
11:55 16.4 16.3 99 1019.9 9.8 SE 20.6 0.0 6.7
11:56 16.4 16.3 99 1019.8 10.7 SE 20.6 0.0 6.7
11:57 16.4 16.3 99 1020.0 13.0 S 20.6 0.0 6.7
11:58 16.4 16.3 99 1019.9 10.7 S 20.6 0.0 6.7
11:59 16.4 16.3 99 1019.9 10.7 S 20.6 0.0 6.7
12:00 16.4 16.3 99 1019.9 14.5 SW 20.6 0.0 6.7
12:01 16.4 16.3 99 1020.0 14.5 SW 20.6 0.0 6.7
12:02 16.4 16.3 99 1020.0 15.9 S 20.6 0.0 6.7
12:03 16.4 16.3 99 1020.0 12.1 S 20.6 0.0 6.7
12:04 16.4 16.3 99 1019.8 10.7 SE 15.9 0.0 6.7
12:05 16.4 16.3 99 1019.8 12.1 S 15.9 0.0 6.7
12:07 16.5 16.4 99 1019.8 14.5 SSE 15.9 0.0 6.7
12:08 16.4 16.3 99 1019.9 13.6 SE 15.9 0.0 6.7
12:09 16.4 16.3 99 1019.9 10.7 S 15.9 0.0 6.7
12:10 16.4 16.3 99 1019.9 11.4 S 15.9 0.0 6.7
12:11 16.4 16.3 99 1019.8 9.8 S 15.9 0.0 6.7
12:12 16.4 16.3 99 1019.9 11.4 S 14.5 0.0 6.7
12:13 16.5 16.4 99 1019.8 13.0 SE 14.5 0.0 6.7
12:14 16.4 16.3 99 1019.9 12.1 S 14.5 0.0 6.7
12:15 16.5 16.4 99 1019.9 13.6 S 14.5 0.0 6.7
12:16 16.5 16.4 99 1019.9 13.6 S 14.5 0.0 6.7
12:17 16.5 16.4 99 1020.0 9.8 S 14.5 0.0 6.7
12:18 16.5 16.4 99 1019.8 13.6 S 13.6 0.0 6.7
12:19 16.5 16.4 99 1019.9 13.6 SE 13.6 0.0 6.7
12:20 16.5 16.4 99 1019.9 8.3 S 13.6 0.0 6.7
12:21 16.5 16.4 99 1019.9 13.6 S 15.2 0.0 6.7
12:22 16.5 16.4 99 1019.9 12.1 S 15.2 0.0 6.7
12:23 16.6 16.5 99 1020.1 11.4 S 15.2 0.0 6.7
12:24 16.6 16.5 99 1019.8 12.1 SE 15.2 0.0 6.7
12:25 16.6 16.5 99 1020.0 10.7 S 15.2 0.0 6.7
12:26 16.6 16.5 99 1020.0 14.5 S 15.2 0.0 6.7
12:27 16.6 16.5 99 1019.9 15.2 SW 16.8 0.0 6.7
12:28 16.6 16.5 99 1019.8 13.0 S 16.8 0.0 6.7
12:29 16.6 16.5 99 1019.9 20.6 SE 20.6 0.0 6.8
12:30 16.7 16.6 99 1019.9 21.3 SW 21.3 0.8 6.8
12:31 16.7 16.6 99 1019.8 12.1 S 21.3 0.8 6.8
12:32 16.7 16.6 99 1019.9 8.3 SE 21.3 0.8 6.8
12:33 16.7 16.6 99 1019.9 14.5 S 21.3 0.8 6.8
12:34 16.7 16.6 99 1019.8 15.2 S 21.3 0.8 6.8
12:35 16.7 16.6 99 1019.8 13.0 SE 21.3 0.0 6.8
12:36 16.7 16.6 99 1019.7 12.1 SW 21.3 0.0 6.9
12:37 16.8 16.7 99 1019.8 10.7 SE 21.3 0.8 6.9
12:38 16.8 16.7 99 1019.7 15.2 S 21.3 0.8 6.9
12:39 16.8 16.7 99 1019.8 14.5 S 21.3 0.8 6.9
12:40 16.8 16.7 99 1019.8 13.0 S 18.3 1.5 6.9
12:41 16.8 16.7 99 1019.8 11.4 S 15.2 1.5 6.9
12:42 16.8 16.7 99 1019.8 16.8 SE 16.8 0.8 6.9
12:43 16.8 16.7 99 1019.7 10.7 SSW 16.8 0.8 6.9
12:44 16.8 16.7 99 1019.7 10.7 SSW 16.8 0.8 6.9
12:45 16.8 16.7 99 1019.8 12.1 SE 16.8 0.0 6.9
12:46 16.8 16.7 99 1019.7 20.6 S 20.6 0.0 6.9
12:47 16.8 16.7 99 1019.8 22.1 S 22.1 0.0 6.9
12:48 16.8 16.7 99 1019.9 17.4 SW 22.1 0.0 6.9
12:49 16.8 16.7 99 1019.8 19.0 SE 22.1 0.0 6.9
12:50 16.8 16.7 99 1019.7 14.5 SW 22.1 0.0 6.9
12:51 16.8 16.7 99 1019.9 15.2 S 22.1 0.0 6.9
12:52 16.8 16.7 99 1019.8 15.2 SW 22.1 0.0 6.9
12:53 16.8 16.7 99 1019.8 18.3 SE 22.1 0.0 6.9
12:54 16.8 16.7 99 1019.8 16.8 S 22.1 0.0 6.9
12:56 16.8 16.7 99 1019.8 13.0 S 22.1 0.0 6.9
12:57 16.9 16.8 99 1019.7 14.5 S 19.0 0.0 6.9
12:58 16.8 16.7 99 1019.7 13.6 SE 19.0 0.0 6.9
12:59 16.9 16.8 99 1019.9 19.0 SE 19.0 0.0 6.9
13:00 16.9 16.8 99 1019.8 19.0 SE 19.0 0.0 6.9
13:01 16.9 16.8 99 1019.7 19.0 SE 19.0 0.0 6.9
13:02 16.9 16.8 99 1019.8 16.8 SE 19.0 0.0 6.9
13:03 16.9 16.8 99 1019.7 17.4 SE 19.0 0.0 6.9
13:04 16.9 16.8 99 1019.7 18.3 SW 19.0 0.0 6.9
13:05 16.9 16.8 99 1019.8 18.3 SE 19.0 0.0 6.9
13:06 17.0 16.9 99 1019.5 18.3 SE 19.0 0.0 6.9
13:07 17.0 16.9 99 1019.8 22.8 S 22.8 0.0 6.9
13:08 17.0 16.9 99 1019.7 21.3 SE 22.8 0.0 6.9
13:09 16.9 16.8 99 1019.6 17.4 S 22.8 0.0 6.9
13:10 17.0 16.9 99 1019.7 15.9 S 22.8 0.0 6.9
13:11 17.0 16.9 99 1019.7 17.4 SE 22.8 0.0 6.9
13:12 17.0 16.9 99 1019.8 11.4 SE 22.8 0.0 6.9
13:13 17.0 16.9 99 1019.5 13.6 S 22.8 0.0 6.9
13:14 17.0 16.9 99 1019.8 15.2 S 22.8 0.0 6.9
13:15 17.0 16.9 99 1019.8 20.6 S 22.8 0.0 6.9
13:16 17.0 16.9 99 1019.8 20.6 S 22.8 0.0 6.9
13:17 17.0 16.9 99 1019.7 22.8 WSW 22.8 0.0 6.9
13:18 17.0 16.9 99 1019.8 14.5 SE 22.8 0.0 6.9
13:19 17.0 16.9 99 1019.6 22.1 SW 22.8 0.0 6.9
13:20 17.0 16.9 99 1019.7 17.4 SE 22.8 0.0 6.9
13:21 17.0 16.9 99 1019.5 14.5 S 22.8 0.0 6.9
13:22 17.1 17.0 99 1019.7 15.9 SE 22.8 0.0 6.9
13:23 17.1 17.0 99 1019.5 19.7 S 22.8 0.0 6.9
13:24 17.2 17.1 99 1019.5 12.1 SE 22.8 0.0 6.9
13:25 17.2 17.1 99 1019.6 15.2 SE 22.8 0.0 6.9
13:26 17.3 17.2 99 1019.6 22.8 SE 22.8 0.0 6.9
13:27 17.3 17.2 99 1019.4 17.4 SSE 22.8 0.0 6.9
13:28 17.3 17.2 99 1019.5 24.4 S 24.4 0.0 6.9
13:29 17.4 17.3 99 1019.4 18.3 S 24.4 0.0 6.9
13:30 17.4 17.3 99 1019.3 21.3 SE 24.4 0.0 6.9
13:31 17.4 17.3 99 1019.6 15.9 SE 24.4 0.0 6.9
13:32 17.4 17.3 99 1019.6 19.7 SE 24.4 0.0 6.9
13:33 17.5 17.4 99 1019.4 21.3 S 24.4 0.0 6.9
13:34 17.5 17.4 99 1019.4 19.0 S 24.4 0.0 6.9
13:35 17.5 17.4 99 1019.4 14.5 E 24.4 0.0 6.9
13:36 17.5 17.4 99 1019.5 20.6 S 24.4 0.0 6.9
13:37 17.5 17.4 99 1019.6 20.6 SE 24.4 0.0 6.9
13:38 17.6 17.5 99 1019.4 14.5 S 24.4 0.0 6.9
13:39 17.6 17.5 99 1019.4 14.5 S 22.1 0.0 6.9
13:40 17.6 17.5 99 1019.5 22.8 S 22.8 0.0 6.9
13:41 17.6 17.5 99 1019.5 17.4 S 22.8 0.0 6.9
13:42 17.6 17.5 99 1019.7 23.5 S 23.5 0.0 6.9
13:43 17.6 17.5 99 1019.6 22.8 S 23.5 0.0 6.9
13:44 17.6 17.5 99 1019.6 19.7 SE 23.5 0.0 6.9
13:45 17.6 17.5 99 1019.7 17.4 S 23.5 0.0 6.9
13:46 17.6 17.5 99 1019.6 13.0 S 23.5 0.0 6.9
13:47 17.6 17.5 99 1019.6 16.8 SE 23.5 0.0 6.9
13:48 17.6 17.5 99 1019.8 17.4 S 23.5 0.0 6.9
13:49 17.5 17.4 99 1019.8 20.6 S 23.5 0.0 6.9
13:50 17.5 17.4 99 1019.5 16.8 SE 23.5 0.0 6.9
13:51 17.5 17.4 99 1019.5 14.5 S 23.5 0.0 6.9
13:52 17.5 17.4 99 1019.5 18.3 S 23.5 0.0 6.9
13:53 17.5 17.4 99 1019.5 19.0 S 23.5 0.0 6.9
13:54 17.5 17.4 99 1019.5 22.8 SW 23.5 0.0 6.9
13:55 17.5 17.4 99 1019.5 18.3 S 23.5 0.0 6.9
13:56 17.5 17.4 99 1019.4 17.4 SE 23.5 0.0 6.9
13:57 17.4 17.3 99 1019.4 19.7 E 23.5 0.0 6.9
13:58 17.4 17.3 99 1019.4 21.3 S 23.5 0.0 6.9
13:59 17.4 17.3 99 1019.5 15.2 S 23.5 0.0 6.9
14:00 17.4 17.3 99 1019.3 15.2 S 22.8 0.0 6.9
14:01 17.4 17.3 99 1019.5 15.2 S 22.8 0.0 6.9
14:02 17.3 17.2 99 1019.5 18.3 S 22.8 0.0 6.9
14:03 17.3 17.2 99 1019.5 18.3 S 22.8 0.0 6.9
14:04 17.4 17.3 99 1019.5 19.7 SE 22.8 0.0 6.9
14:05 17.4 17.3 99 1019.5 21.3 SE 22.8 0.0 6.9
14:06 17.3 17.2 99 1019.3 17.4 SE 21.3 0.0 6.9
14:07 17.3 17.2 99 1019.3 16.8 SE 21.3 0.0 6.9
14:08 17.3 17.2 99 1019.3 17.4 SE 21.3 0.0 6.9
14:09 17.4 17.3 99 1019.4 15.2 S 21.3 0.0 6.9
14:10 17.3 17.2 99 1019.1 15.2 S 21.3 0.0 6.9
14:11 17.3 17.2 99 1019.3 12.1 S 21.3 0.0 6.9
14:12 17.3 17.2 99 1019.1 14.5 S 21.3 0.0 6.9
14:13 17.3 17.2 99 1019.3 19.7 S 21.3 0.0 6.9
14:14 17.3 17.2 99 1019.2 14.5 S 21.3 0.0 6.9
14:15 17.3 17.2 99 1019.3 16.8 SW 19.7 0.0 6.9
14:16 17.3 17.2 99 1019.1 15.9 S 19.7 0.0 6.9
14:17 17.3 17.2 99 1019.2 13.6 SE 19.7 0.0 6.9
14:18 17.3 17.2 99 1019.1 15.9 SE 21.3 0.0 6.9
14:19 17.3 17.2 99 1019.2 13.0 SW 21.3 0.0 6.9
14:20 17.3 17.2 99 1019.1 17.4 SSW 21.3 0.0 6.9
14:21 17.4 17.3 99 1019.3 15.2 SW 21.3 0.0 6.9
14:22 17.3 17.2 99 1019.2 22.8 SW 22.8 0.0 6.9
14:23 17.3 17.2 99 1019.2 22.8 SW 22.8 0.0 6.9
14:24 17.3 17.2 99 1019.1 17.4 S 22.8 0.0 6.9
14:25 17.3 17.2 99 1019.2 17.4 S 22.8 0.0 6.9
14:26 17.3 17.2 99 1019.2 16.8 SW 22.8 0.0 6.9
14:27 17.3 17.2 99 1019.2 17.4 S 22.8 0.0 6.9
14:28 17.3 17.2 99 1019.1 20.6 S 22.8 0.0 6.9
14:29 17.3 17.2 99 1019.0 17.4 S 22.8 0.0 6.9
14:30 17.3 17.2 99 1019.0 19.7 S 22.8 0.0 6.9
14:31 17.3 17.2 99 1019.1 13.6 S 22.8 0.0 6.9
14:32 17.3 17.2 99 1019.1 22.1 SW 22.8 0.0 6.9
14:33 17.3 17.2 99 1019.0 15.9 SE 22.1 0.0 6.9
14:34 17.3 17.2 99 1019.0 18.3 SSE 22.1 0.0 6.9
14:35 17.3 17.2 99 1018.9 19.0 SSE 22.1 0.0 6.9
14:36 17.3 17.2 99 1019.0 15.9 S 22.1 0.0 6.9
14:37 17.3 17.2 99 1019.0 12.1 SW 22.1 0.0 6.9
14:38 17.3 17.2 99 1019.1 19.7 SW 22.1 0.8 7.0
14:39 17.3 17.2 99 1019.0 15.9 S 22.1 0.8 7.0
14:40 17.3 17.2 99 1019.0 17.4 S 22.1 0.8 7.0
14:41 17.3 17.2 99 1019.1 15.9 SE 22.1 0.8 7.0
14:42 17.3 17.2 99 1019.1 25.9 SSW 25.9 0.8 7.0
14:43 17.3 17.2 99 1019.0 25.1 S 25.9 0.0 7.0
14:44 17.3 17.2 99 1019.0 15.9 S 25.9 0.0 7.0
14:45 17.3 17.2 99 1018.9 17.4 S 25.9 0.0 7.0
14:46 17.3 17.2 99 1019.0 16.8 S 25.9 0.0 7.0
14:47 17.4 17.3 99 1019.1 23.5 S 25.9 0.0 7.0
14:48 17.3 17.2 99 1018.9 15.9 WSW 25.9 0.0 7.0
14:49 17.3 17.2 99 1019.0 21.3 SW 25.9 0.0 7.0
14:50 17.3 17.2 99 1018.9 25.9 S 25.9 0.0 7.0
14:51 17.3 17.2 99 1019.0 16.8 S 25.9 0.0 7.0
14:52 17.3 17.2 99 1018.9 21.3 S 25.9 0.0 7.0
14:53 17.3 17.2 99 1019.0 15.2 SSE 25.9 0.0 7.0
14:55 17.3 17.2 99 1018.8 19.7 S 25.9 0.0 7.0
14:56 17.3 17.2 99 1019.0 19.7 SE 25.9 0.0 7.0
14:57 17.3 17.2 99 1019.0 15.2 S 25.9 0.0 7.0
14:58 17.3 17.2 99 1018.9 21.3 S 25.9 0.0 7.0
14:59 17.3 17.2 99 1019.0 23.5 S 25.9 0.0 7.0
15:00 17.3 17.2 99 1018.9 23.5 S 23.5 0.0 7.0
15:01 17.3 17.2 99 1019.0 23.5 S 23.5 0.0 7.0
15:02 17.3 17.2 99 1018.9 19.7 S 23.5 0.0 7.0
15:03 17.3 17.2 99 1018.8 16.8 SW 23.5 0.0 7.0
15:04 17.4 17.3 99 1018.6 22.1 S 23.5 0.0 7.0
15:05 17.4 17.3 99 1018.6 28.2 SE 28.2 0.0 7.0
15:06 17.4 17.3 99 1018.6 20.6 S 28.2 0.0 7.0
15:07 17.4 17.3 99 1018.7 17.4 S 28.2 0.0 7.0
15:08 17.4 17.3 99 1018.7 13.6 SW 28.2 0.0 7.0
15:09 17.4 17.3 99 1018.8 23.5 SSW 28.2 0.0 7.0
15:10 17.4 17.3 99 1018.7 20.6 SSW 28.2 0.0 7.0
15:11 17.5 17.4 99 1018.6 15.2 S 28.2 0.0 7.0
15:12 17.5 17.4 99 1018.9 24.4 S 28.2 0.0 7.0
15:13 17.5 17.4 99 1018.8 19.0 SSW 28.2 0.0 7.0
15:14 17.5 17.4 99 1018.7 16.8 S 28.2 0.0 7.0
15:15 17.5 17.4 99 1018.6 15.2 S 28.2 0.0 7.0
15:16 17.5 17.4 99 1018.8 25.1 NW 26.6 0.0 7.0
15:17 17.5 17.4 99 1018.7 19.7 SE 26.6 0.0 7.0
15:19 17.4 17.3 99 1018.6 21.3 S 26.6 0.0 7.0
15:20 17.4 17.3 99 1018.7 13.0 SE 26.6 0.0 7.0
15:21 17.4 17.3 99 1018.6 15.9 SW 26.6 0.0 7.0
15:22 17.4 17.3 99 1018.5 14.5 S 26.6 0.0 7.1
15:23 17.4 17.3 99 1018.5 12.1 S 25.1 0.8 7.1
15:25 17.4 17.3 99 1018.5 15.2 SE 25.1 0.8 7.1
15:26 17.4 17.3 99 1018.4 23.5 S 23.5 0.8 7.1
15:27 17.4 17.3 99 1018.5 16.8 SW 23.5 0.8 7.1
15:28 17.4 17.3 99 1018.5 19.0 S 23.5 0.0 7.1
15:29 17.3 17.2 99 1018.3 13.6 S 23.5 0.0 7.1
15:30 17.3 17.2 99 1018.2 18.3 SW 23.5 0.8 7.1
15:31 17.3 17.2 99 1018.5 22.1 S 23.5 0.8 7.2
15:32 17.3 17.2 99 1018.3 16.8 SE 23.5 2.3 7.3
15:33 17.3 17.2 99 1018.3 21.3 S 23.5 3.0 7.4
15:34 17.2 17.1 99 1018.5 22.1 SE 23.5 3.8 7.4
15:35 17.2 17.1 99 1018.3 19.0 SE 23.5 3.0 7.4
15:36 17.2 17.1 99 1018.5 20.6 S 22.1 3.8 7.4
15:37 17.1 17.0 99 1018.5 22.1 SW 22.1 2.3 7.4
15:38 17.1 17.0 99 1018.6 24.4 S 24.4 1.5 7.4
15:39 17.1 17.0 99 1018.6 24.4 S 24.4 0.8 7.4
15:40 17.0 16.9 99 1018.5 22.1 SSW 24.4 0.8 7.4
15:41 16.9 16.8 99 1018.3 20.6 S 24.4 0.0 7.4
15:42 16.9 16.8 99 1018.4 19.7 S 24.4 0.0 7.4
15:43 16.9 16.8 99 1018.3 19.7 SE 24.4 0.0 7.4
15:44 16.8 16.7 99 1018.4 22.1 S 24.4 0.8 7.5
15:45 16.8 16.7 99 1018.3 17.4 S 24.4 0.8 7.5
15:46 16.8 16.7 99 1018.2 15.2 S 24.4 0.8 7.5
15:47 16.7 16.6 99 1018.3 21.3 S 24.4 0.8 7.5
15:48 16.7 16.6 99 1018.2 16.8 S 24.4 1.5 7.6
15:49 16.7 16.6 99 1018.3 19.7 S 22.8 0.8 7.6
15:50 16.7 16.6 99 1018.4 15.2 SW 22.1 1.5 7.6
15:51 16.6 16.5 99 1018.3 19.0 S 22.1 1.5 7.7
15:52 16.6 16.5 99 1018.4 21.3 SE 22.1 2.3 7.7
15:53 16.5 16.4 99 1018.3 19.7 S 22.1 2.3 7.9
15:54 16.5 16.4 99 1018.2 14.5 S 22.1 4.5 8.0
15:55 16.5 16.4 99 1018.3 13.6 S 21.3 4.5 8.1
15:56 16.5 16.4 99 1018.3 17.4 SE 21.3 5.3 8.1
15:57 16.5 16.4 99 1018.3 22.8 S 22.8 5.3 8.1
15:58 16.4 16.3 99 1018.3 18.3 S 22.8 5.3 8.2
15:59 16.5 16.4 99 1018.3 15.2 SE 22.8 3.0 8.2
16:00 16.5 16.4 99 1018.2 15.2 SE 22.8 2.3 8.2
16:01 16.5 16.4 99 1018.2 15.2 SE 22.8 1.5 8.2
16:02 16.4 16.3 99 1018.2 16.8 S 22.8 1.5 8.3
16:03 16.4 16.3 99 1018.1 18.3 S 22.8 1.5 8.3
16:04 16.3 16.2 99 1018.0 18.3 SE 22.8 1.5 8.3
16:05 16.3 16.2 99 1018.1 16.8 SW 22.8 1.5 8.4
16:06 16.3 16.2 99 1018.1 19.7 SSE 22.8 2.3 8.4
16:07 16.3 16.2 99 1018.0 24.4 S 24.4 1.5 8.4
16:08 16.3 16.2 99 1018.1 21.3 E 24.4 0.8 8.4
16:09 16.2 16.1 99 1018.1 17.4 SE 24.4 0.8 8.4
16:10 16.2 16.1 99 1018.0 19.0 S 24.4 0.8 8.4
16:11 16.2 16.1 99 1018.0 15.9 S 24.4 0.0 8.4
16:13 16.1 16.0 99 1018.1 22.1 SW 24.4 0.0 8.4
16:14 16.1 16.0 99 1017.9 17.4 SE 24.4 0.0 8.4
16:15 16.1 16.0 99 1018.1 15.2 SSW 24.4 0.0 8.4
16:16 16.1 16.0 99 1018.0 15.2 S 24.4 0.0 8.4
16:17 16.1 16.0 99 1018.1 16.8 S 22.1 0.0 8.4
16:18 16.1 16.0 99 1018.0 13.6 SW 22.1 0.0 8.4
16:19 16.1 16.0 99 1017.9 15.2 SW 22.1 0.0 8.4
16:20 16.1 16.0 99 1018.0 13.6 S 22.1 0.0 8.4
16:21 16.1 16.0 99 1018.0 17.4 S 22.1 0.0 8.4
16:22 16.1 16.0 99 1018.0 17.4 SE 22.1 0.0 8.4
16:23 16.1 16.0 99 1018.0 17.4 SE 22.1 0.0 8.4
16:24 16.1 16.0 99 1018.0 13.0 SW 19.7 0.0 8.4
16:25 16.0 15.9 99 1017.9 14.5 SE 19.7 0.0 8.4
16:26 16.1 16.0 99 1018.0 15.2 SE 19.7 0.0 8.4
16:27 16.1 16.0 99 1017.9 13.6 S 19.7 1.5 8.5
16:28 16.1 16.0 99 1017.9 18.3 SE 19.7 3.0 8.6
16:29 16.1 16.0 99 1017.9 12.1 SE 18.3 4.5 8.8
16:30 16.1 16.0 99 1017.9 13.6 SSE 18.3 4.5 8.8
16:31 16.1 16.0 99 1018.0 12.1 S 18.3 6.0 8.9
16:33 16.2 16.1 99 1018.0 13.0 S 18.3 3.0 8.9
16:34 16.2 16.1 99 1017.9 13.6 S 18.3 2.3 8.9
16:35 16.2 16.1 99 1017.9 14.5 S 18.3 3.0 9.0
16:36 16.2 16.1 99 1017.8 12.1 S 18.3 1.5 9.0
16:37 16.2 16.1 99 1017.9 17.4 SE 18.3 1.5 9.0
16:38 16.3 16.2 99 1017.8 12.1 SE 17.4 1.5 9.0
16:39 16.3 16.2 99 1017.8 13.6 S 17.4 0.8 9.1
16:40 16.3 16.2 99 1017.8 12.1 S 17.4 0.8 9.1
16:41 16.3 16.2 99 1017.8 12.1 S 17.4 1.5 9.1
16:42 16.4 16.3 99 1017.7 12.1 S 17.4 1.5 9.2
16:43 16.4 16.3 99 1017.7 17.4 ENE 17.4 2.3 9.2
16:44 16.4 16.3 99 1017.7 15.9 SSE 17.4 2.3 9.2
16:45 16.4 16.3 99 1017.7 12.1 S 17.4 1.5 9.2
16:46 16.4 16.3 99 1017.6 14.5 SE 17.4 0.8 9.2
16:47 16.5 16.4 99 1017.8 13.0 S 17.4 1.5 9.3
16:48 16.5 16.4 99 1017.7 10.7 NW 17.4 0.8 9.3
16:49 16.5 16.4 99 1017.8 18.3 SSW 18.3 0.8 9.3
16:50 16.5 16.4 99 1017.7 18.3 SE 18.3 1.5 9.3
16:51 16.5 16.4 99 1017.9 15.9 SSE 18.3 2.3 9.4
16:52 16.5 16.4 99 1017.8 19.0 SSE 19.0 1.5 9.4
16:54 16.5 16.4 99 1017.7 15.2 S 19.0 2.3 9.4
16:55 16.6 16.5 99 1017.8 13.6 S 19.0 1.5 9.5
16:56 16.5 16.4 99 1017.8 18.3 S 19.0 1.5 9.5
16:57 16.5 16.4 99 1017.8 15.9 S 19.0 1.5 9.5
16:58 16.6 16.5 99 1017.5 15.9 S 19.0 1.5 9.6
16:59 16.5 16.4 99 1017.6 15.2 SE 19.0 1.5 9.6
17:00 16.5 16.4 99 1017.5 15.2 SE 19.0 1.5 9.6
17:01 16.5 16.4 99 1017.5 15.2 SE 19.0 0.8 9.6
17:02 16.6 16.5 99 1017.6 18.3 S 22.1 0.8 9.6
17:03 16.6 16.5 99 1017.6 20.6 SSE 22.1 1.5 9.6
17:04 16.6 16.5 99 1017.5 19.0 S 22.1 0.8 9.6
17:05 16.6 16.5 99 1017.5 22.8 SE 22.8 0.8 9.6
17:06 16.6 16.5 99 1017.3 16.8 ESE 22.8 0.8 9.6
17:07 16.6 16.5 99 1017.4 9.8 S 22.8 0.8 9.6
17:08 16.6 16.5 99 1017.5 15.9 S 22.8 0.0 9.6
17:09 16.6 16.5 99 1017.4 21.3 S 22.8 0.0 9.6
17:10 16.6 16.5 99 1017.5 15.9 S 22.8 0.0 9.6
17:11 16.6 16.5 99 1017.4 16.8 SE 22.8 0.0 9.6
17:12 16.6 16.5 99 1017.5 15.2 SE 22.8 0.0 9.6
17:13 16.6 16.5 99 1017.4 13.0 SSW 22.8 0.0 9.6
17:14 16.6 16.5 99 1017.4 15.9 SE 22.8 0.0 9.6
17:15 16.6 16.5 99 1017.3 13.6 S 22.8 0.0 9.6
17:16 16.6 16.5 99 1017.4 15.9 SSE 21.3 0.0 9.6
17:17 16.6 16.5 99 1017.3 14.5 S 21.3 0.0 9.6
17:18 16.6 16.5 99 1017.4 17.4 S 21.3 0.0 9.6
17:19 16.6 16.5 99 1017.5 18.3 SW 21.3 0.0 9.6
17:20 16.6 16.5 99 1017.4 18.3 S 18.3 0.0 9.6
17:21 16.6 16.5 99 1017.4 17.4 SW 18.3 0.0 9.6
17:22 16.6 16.5 99 1017.4 18.3 S 18.3 0.0 9.6
17:23 16.6 16.5 99 1017.3 13.0 S 18.3 0.0 9.6
17:24 16.7 16.6 99 1017.4 13.6 SE 18.3 0.0 9.6
17:26 16.7 16.6 99 1017.4 16.8 S 20.6 0.0 9.6
17:27 16.7 16.6 99 1017.4 15.2 S 20.6 0.0 9.6
17:28 16.5 16.4 99 1017.4 13.6 S 20.6 0.0 9.6
17:29 16.7 16.6 99 1017.5 12.1 SE 20.6 0.0 9.6
17:30 16.7 16.6 99 1017.3 19.7 S 20.6 0.0 9.6
17:31 16.7 16.6 99 1017.3 16.8 S 20.6 0.0 9.6
17:32 16.6 16.5 99 1017.3 21.3 SW 21.3 0.0 9.6
17:33 16.7 16.6 99 1017.4 13.6 S 21.3 0.0 9.6
17:34 16.7 16.6 99 1017.3 13.0 S 21.3 0.0 9.6
17:35 16.7 16.6 99 1017.3 13.6 SE 21.3 0.0 9.6
17:36 16.7 16.6 99 1017.3 13.0 SE 21.3 0.0 9.6
17:37 16.7 16.6 99 1017.3 12.1 SW 21.3 0.0 9.6
17:38 16.7 16.6 99 1017.3 18.3 S 21.3 0.0 9.6
17:39 16.7 16.6 99 1017.3 17.4 S 21.3 0.0 9.7
17:40 16.7 16.6 99 1017.3 17.4 S 21.3 0.8 9.7
17:41 16.7 16.6 99 1017.1 19.7 SE 21.3 0.8 9.7
17:42 16.7 16.6 99 1017.2 19.7 S 21.3 0.8 9.7
17:43 16.7 16.6 99 1017.3 17.4 S 19.7 0.8 9.7
17:44 16.6 16.5 99 1017.2 15.2 SE 19.7 1.5 9.8
17:45 16.6 16.5 99 1017.2 13.0 S 19.7 0.8 9.8
17:46 16.7 16.6 99 1017.2 12.1 S 19.7 0.8 9.8
17:47 16.7 16.6 99 1017.1 13.0 SE 19.7 1.5 9.8
17:48 16.7 16.6 99 1017.1 19.0 S 19.7 1.5 9.8
17:49 16.7 16.6 99 1017.2 20.6 S 20.6 0.8 9.8
17:50 16.7 16.6 99 1017.1 19.0 SE 20.6 1.5 9.9
17:52 16.6 16.5 99 1017.0 13.6 SE 21.3 0.8 10.0
17:53 16.6 16.5 99 1017.0 20.6 SE 21.3 1.5 10.0
17:54 16.6 16.5 99 1017.0 13.0 S 21.3 2.3 10.0
17:55 16.6 16.5 99 1017.1 14.5 SE 21.3 1.5 10.1
17:56 16.6 16.5 99 1017.2 13.6 S 21.3 2.3 10.1
17:57 16.6 16.5 99 1017.2 21.3 S 21.3 3.0 10.1
17:58 16.6 16.5 99 1017.0 15.9 SSE 21.3 3.0 10.3
17:59 16.6 16.5 99 1016.9 18.3 S 21.3 3.0 10.3
18:00 16.6 16.5 99 1017.1 18.3 S 21.3 3.0 10.3
18:01 16.6 16.5 99 1017.0 18.3 S 21.3 2.3 10.3
18:02 16.6 16.5 99 1017.0 13.6 S 21.3 4.5 10.5
18:03 16.6 16.5 99 1017.0 16.8 S 21.3 3.8 10.6
18:04 16.6 16.5 99 1017.1 16.8 E 21.3 4.5 10.6
18:05 16.6 16.5 99 1017.1 17.4 SE 21.3 4.5 10.8
18:06 16.6 16.5 99 1017.1 12.1 SE 21.3 6.0 10.9
18:07 16.5 16.4 99 1017.0 18.3 S 19.0 4.5 10.9
18:08 16.5 16.4 99 1017.2 15.9 SSW 18.3 4.5 11.0
18:09 16.5 16.4 99 1017.1 16.8 S 18.3 3.8 11.0
18:10 16.5 16.4 99 1017.0 15.9 SE 19.0 6.0 11.2
18:11 16.5 16.4 99 1017.1 19.0 S 19.0 4.5 11.3
18:12 16.5 16.4 99 1017.1 19.0 S 19.0 4.5 11.3
18:13 16.5 16.4 99 1017.1 19.0 SE 19.0 5.3 11.4
18:14 16.5 16.4 99 1017.1 15.2 S 19.0 5.3 11.4
18:15 16.5 16.4 99 1017.1 24.4 SSE 24.4 4.5 11.5
18:16 16.5 16.4 99 1016.9 17.4 S 24.4 5.3 11.6
18:17 16.5 16.4 99 1016.9 16.8 SW 24.4 4.5 11.7
18:18 16.5 16.4 99 1017.0 16.8 S 24.4 5.3 11.8
18:19 16.5 16.4 99 1017.1 15.2 S 24.4 5.3 11.8
18:20 16.5 16.4 99 1017.0 17.4 S 24.4 4.5 11.9
18:21 16.5 16.4 99 1017.1 19.0 S 24.4 4.5 12.0
18:22 16.5 16.4 99 1016.9 16.8 WSW 24.4 5.3 12.1
18:23 16.5 16.4 99 1016.9 13.6 S 24.4 4.5 12.2
18:24 16.5 16.4 99 1016.9 15.2 S 24.4 3.8 12.2
18:25 16.5 16.4 99 1016.8 14.5 S 19.7 3.8 12.3
18:26 16.5 16.4 99 1016.9 22.1 SE 22.1 4.5 12.3
18:27 16.5 16.4 99 1017.0 16.8 SE 23.5 3.0 12.4
18:28 16.5 16.4 99 1016.8 14.5 SE 23.5 3.0 12.4
18:29 16.5 16.4 99 1016.9 13.0 S 23.5 3.0 12.5
18:30 16.5 16.4 99 1016.8 16.8 SE 23.5 3.8 12.7
18:32 16.5 16.4 99 1016.7 14.5 S 23.5 4.5 12.8
18:33 16.5 16.4 99 1016.8 16.8 SE 23.5 4.5 12.8
18:34 16.5 16.4 99 1016.9 17.4 S 23.5 4.5 12.9
18:35 16.5 16.4 99 1016.8 14.5 S 23.5 3.8 12.9
18:36 16.5 16.4 99 1016.9 14.5 SE 23.5 2.3 12.9
18:37 16.5 16.4 99 1016.8 15.2 SE 22.1 1.5 12.9
18:38 16.5 16.4 99 1016.7 17.4 SE 22.1 1.5 12.9
18:39 16.5 16.4 99 1016.7 15.2 S 22.1 1.5 12.9
18:40 16.5 16.4 99 1016.8 21.3 S 22.1 0.8 12.9
18:41 16.5 16.4 99 1016.6 15.2 SE 22.1 0.8 12.9
18:42 16.5 16.4 99 1016.8 19.7 S 21.3 0.8 12.9
18:43 16.5 16.4 99 1016.8 19.7 S 21.3 0.0 12.9
18:44 16.5 16.4 99 1016.6 15.9 S 21.3 0.8 13.0
18:45 16.5 16.4 99 1016.7 24.4 S 24.4 1.5 13.1
18:46 16.5 16.4 99 1016.6 24.4 SE 24.4 3.0 13.2
18:47 16.5 16.4 99 1016.6 18.3 SW 24.4 3.8 13.2
18:48 16.5 16.4 99 1016.5 15.2 NW 24.4 3.8 13.2
18:49 16.5 16.4 99 1016.6 19.0 S 24.4 3.8 13.3
18:50 16.5 16.4 99 1016.7 21.3 S 24.4 3.0 13.3
18:51 16.5 16.4 99 1016.6 17.4 SW 24.4 1.5 13.3
18:52 16.5 16.4 99 1016.8 15.2 SW 24.4 1.5 13.4
18:53 16.5 16.4 99 1016.5 16.8 S 24.4 2.3 13.4
18:54 16.5 16.4 99 1016.5 18.3 S 24.4 2.3 13.5
18:55 16.5 16.4 99 1016.5 19.0 SE 24.4 3.0 13.5
18:56 16.5 16.4 99 1016.6 19.0 SSW 24.4 3.0 13.5
18:57 16.5 16.4 99 1016.6 23.5 S 23.5 2.3 13.7
18:58 16.5 16.4 99 1016.5 22.1 S 23.5 3.0 13.7
19:00 16.5 16.4 99 1016.5 20.6 S 23.5 1.5 13.7
19:01 16.5 16.4 99 1016.4 20.6 S 23.5 1.5 13.7
19:02 16.5 16.4 99 1016.4 19.7 SE 23.5 1.5 13.7
19:03 16.5 16.4 99 1016.4 19.0 S 23.5 0.0 13.7
19:05 16.5 16.4 99 1016.6 18.3 S 23.5 0.0 13.7
19:06 16.5 16.4 99 1016.3 17.4 S 23.5 0.0 13.7
19:07 16.5 16.4 99 1016.5 17.4 S 22.1 0.0 13.7
19:09 16.5 16.4 99 1016.3 16.8 SE 20.6 0.0 13.7
19:10 16.5 16.4 99 1016.3 13.0 S 20.6 0.0 13.7
19:11 16.5 16.4 99 1016.3 15.9 S 20.6 0.0 13.7
19:12 16.5 16.4 99 1016.4 13.6 S 19.7 0.0 13.7
19:14 16.5 16.4 99 1016.3 15.9 S 18.3 0.0 13.7
19:15 16.5 16.4 99 1016.2 11.4 S 17.4 0.0 13.7
19:16 16.5 16.4 99 1016.3 16.8 S 17.4 0.0 13.7
19:17 16.5 16.4 99 1016.3 15.2 S 17.4 0.0 13.7
19:18 16.5 16.4 99 1016.3 20.6 S 20.6 0.0 13.7
19:19 16.5 16.4 99 1016.3 17.4 S 20.6 0.0 13.7
19:20 16.5 16.4 99 1016.2 15.2 S 20.6 0.0 13.7
19:21 16.5 16.4 99 1016.3 20.6 SW 20.6 0.0 13.7
19:22 16.5 16.4 99 1016.2 14.5 S 20.6 0.0 13.7
19:23 16.5 16.4 99 1016.2 13.0 S 20.6 0.0 13.7
19:24 16.5 16.4 99 1016.2 15.9 S 20.6 0.0 13.7
19:25 16.5 16.4 99 1016.2 17.4 S 20.6 0.0 13.7
19:26 16.6 16.5 99 1016.1 15.2 N 20.6 0.0 13.7
19:27 16.6 16.5 99 1016.1 16.8 S 20.6 0.0 13.7
19:28 16.5 16.4 99 1016.1 20.6 S 20.6 0.0 13.7
19:29 16.6 16.5 99 1016.1 14.5 SE 20.6 0.0 13.7
19:30 16.5 16.4 99 1016.0 17.4 SW 20.6 0.0 13.7
19:31 16.6 16.5 99 1015.9 20.6 SE 20.6 0.0 13.7
19:32 16.5 16.4 99 1015.9 19.7 SE 20.6 0.0 13.7
19:33 16.5 16.4 99 1015.9 19.7 SE 20.6 0.0 13.7
19:34 16.6 16.5 99 1016.0 17.4 E 22.1 0.0 13.7
19:35 16.6 16.5 99 1015.9 18.3 S 22.1 0.0 13.7
19:36 16.6 16.5 99 1016.0 14.5 S 22.1 0.0 13.7
19:37 16.6 16.5 99 1015.8 13.6 S 22.1 0.0 13.7
19:38 16.6 16.5 99 1015.9 19.0 SE 22.1 0.0 13.7
19:39 16.6 16.5 99 1015.9 13.0 S 22.1 0.0 13.7
19:41 16.6 16.5 99 1015.9 20.6 SE 22.1 0.0 13.7
19:42 16.6 16.5 99 1015.8 16.8 SW 22.8 0.0 13.7
19:43 16.6 16.5 99 1015.8 18.3 S 22.8 0.0 13.7
19:44 16.6 16.5 99 1015.9 19.7 S 22.8 0.0 13.7
19:45 16.8 16.7 99 1015.8 18.3 SE 22.8 0.0 13.7
19:46 16.6 16.5 99 1015.8 17.4 SSW 22.8 0.0 13.7
19:47 16.6 16.5 99 1016.0 16.8 S 22.8 0.0 13.7
19:48 16.6 16.5 99 1015.9 18.3 S 22.8 0.0 13.7
19:49 16.6 16.5 99 1015.9 22.1 SE 22.8 0.0 13.7
19:50 16.6 16.5 99 1015.9 19.7 SE 22.8 0.0 13.7
19:51 16.6 16.5 99 1015.9 13.6 SE 22.8 0.0 13.7
19:52 16.6 16.5 99 1015.9 16.8 S 22.8 0.0 13.7
19:53 16.6 16.5 99 1015.9 16.8 S 22.1 0.0 13.7
19:54 16.6 16.5 99 1015.9 17.4 S 22.1 0.0 13.7
19:55 16.7 16.6 99 1015.7 16.8 S 22.1 0.0 13.7
19:56 16.6 16.5 99 1015.9 13.6 SW 22.1 0.0 13.7
19:57 16.6 16.5 99 1015.8 11.4 S 22.1 0.0 13.7
19:58 16.6 16.5 99 1015.6 19.0 S 22.1 0.0 13.7
19:59 16.7 16.6 99 1015.7 18.3 S 22.1 0.0 13.7
20:00 16.6 16.5 99 1015.7 15.2 SE 19.7 0.0 13.7
20:01 16.6 16.5 99 1015.8 15.2 SE 19.0 0.0 13.7
20:02 16.7 16.6 99 1015.8 18.3 SE 19.0 0.0 13.7
20:03 16.7 16.6 99 1015.8 19.7 S 19.7 0.0 13.7
20:04 16.7 16.6 99 1015.8 23.5 S 23.5 0.0 13.7
20:06 16.7 16.6 99 1015.7 15.9 S 23.5 0.0 13.7
20:07 16.7 16.6 99 1015.8 15.9 SE 23.5 0.0 13.7
20:08 16.7 16.6 99 1015.8 22.8 S 23.5 0.0 13.7
20:09 16.7 16.6 99 1015.6 17.4 S 23.5 0.0 13.7
20:10 16.7 16.6 99 1015.7 20.6 SE 23.5 0.0 13.7
20:11 16.7 16.6 99 1015.7 19.0 SE 23.5 0.0 13.7
20:12 16.7 16.6 99 1015.6 17.4 SE 23.5 0.0 13.7
20:14 16.7 16.6 99 1015.7 13.0 S 22.8 0.0 13.7
20:16 16.7 16.6 99 1015.7 19.7 S 22.8 0.0 13.7
20:17 16.7 16.6 99 1015.8 20.6 S 22.8 0.0 13.7
20:18 16.7 16.6 99 1015.8 15.9 S 20.6 0.0 13.7
20:19 16.7 16.6 99 1015.8 17.4 S 20.6 0.0 13.7
20:20 16.7 16.6 99 1015.7 15.9 SW 20.6 0.0 13.7
20:21 16.7 16.6 99 1015.6 19.0 SW 20.6 0.0 13.7
20:22 16.7 16.6 99 1015.7 19.7 SE 22.8 0.0 13.7
20:23 16.7 16.6 99 1015.7 17.4 S 22.8 0.0 13.7
20:24 16.7 16.6 99 1015.7 11.4 S 22.8 0.0 13.7
20:25 16.8 16.7 99 1015.6 18.3 S 22.8 0.0 13.7
20:26 16.8 16.7 99 1015.5 15.2 SE 22.8 0.0 13.7
20:27 16.8 16.7 99 1015.6 14.5 SE 22.8 0.0 13.7
20:28 16.8 16.7 99 1015.6 15.2 SE 22.8 0.0 13.7
20:29 16.8 16.7 99 1015.6 22.8 S 22.8 0.0 13.7
20:30 16.8 16.7 99 1015.7 17.4 S 22.8 0.0 13.7
20:31 16.7 16.6 99 1015.7 16.8 S 22.8 0.0 13.7
20:32 16.8 16.7 99 1015.8 13.6 SE 22.8 0.0 13.7
20:33 16.8 16.7 99 1015.8 13.6 SE 22.8 0.0 13.7
20:34 16.8 16.7 99 1015.6 17.4 NE 22.8 0.0 13.7
20:35 16.8 16.7 99 1015.8 16.8 SSE 22.8 0.0 13.7
20:36 16.8 16.7 99 1015.7 13.0 SW 22.8 0.0 13.7
20:37 16.8 16.7 99 1015.6 15.2 SW 22.8 0.0 13.7
20:38 16.8 16.7 99 1015.5 15.2 S 22.8 0.0 13.7
20:39 16.8 16.7 99 1015.5 19.0 S 19.0 0.0 13.7
20:41 16.8 16.7 99 1015.5 19.0 S 19.0 0.0 13.7
20:42 16.8 16.7 99 1015.4 19.7 S 19.7 0.0 13.7
20:43 16.8 16.7 99 1015.5 17.4 S 19.7 0.0 13.7
20:44 16.8 16.7 99 1015.3 19.0 S 19.7 0.0 13.7
20:45 16.8 16.7 99 1015.5 14.5 SE 19.7 0.0 13.7
20:46 16.8 16.7 99 1015.3 16.8 S 20.6 0.0 13.7
20:47 16.8 16.7 99 1015.6 18.3 S 20.6 0.0 13.7
20:48 16.8 16.7 99 1015.4 15.9 S 20.6 0.0 13.7
20:49 16.8 16.7 99 1015.5 13.6 S 20.6 0.0 13.7
20:50 16.8 16.7 99 1015.4 15.9 S 20.6 0.0 13.7
20:51 16.8 16.7 99 1015.4 17.4 S 20.6 0.0 13.7
20:52 16.8 16.7 99 1015.4 15.2 S 20.6 0.0 13.7
20:53 16.8 16.7 99 1015.4 12.1 S 20.6 0.0 13.7
20:54 16.8 16.7 99 1015.3 14.5 SW 20.6 0.0 13.7
20:55 16.8 16.7 99 1015.5 18.3 S 20.6 0.0 13.7
20:56 16.8 16.7 99 1015.2 18.3 S 20.6 0.0 13.7
20:57 16.9 16.8 99 1015.4 18.3 SE 19.0 0.0 13.7
20:58 16.8 16.7 99 1015.3 19.0 S 19.0 0.0 13.7
20:59 16.8 16.7 99 1015.3 27.3 S 27.3 0.0 13.7
21:00 16.8 16.7 99 1015.5 22.8 SE 27.3 0.0 13.7
21:01 16.8 16.7 99 1015.5 22.8 SE 27.3 0.0 13.7
21:02 16.8 16.7 99 1015.5 19.0 S 27.3 0.0 13.7
21:03 16.8 16.7 99 1015.5 18.3 SE 27.3 0.0 13.7
21:04 16.8 16.7 99 1015.4 25.1 S 27.3 0.0 13.7
21:05 16.8 16.7 99 1015.5 20.6 SE 27.3 0.0 13.7
21:06 16.8 16.7 99 1015.5 17.4 S 27.3 0.0 13.7
21:07 16.8 16.7 99 1015.3 20.6 SW 27.3 0.0 13.7
21:09 16.8 16.7 99 1015.5 17.4 S 25.1 0.0 13.7
21:10 16.8 16.7 99 1015.3 15.9 S 25.1 0.0 13.7
21:11 16.8 16.7 99 1015.4 13.6 S 25.1 0.0 13.7
21:12 16.8 16.7 99 1015.5 18.3 S 25.1 0.0 13.7
21:13 16.8 16.7 99 1015.4 15.2 S 25.1 0.0 13.7
21:14 16.8 16.7 99 1015.4 19.0 S 25.1 0.0 13.7
21:15 16.7 16.6 99 1015.6 16.8 S 20.6 0.0 13.7
21:16 16.7 16.6 99 1015.5 17.4 SE 20.6 0.0 13.7
21:17 16.7 16.6 99 1015.4 13.0 SW 20.6 0.0 13.7
21:18 16.7 16.6 99 1015.3 17.4 SE 19.0 0.0 13.7
21:19 16.7 16.6 99 1015.3 16.8 S 19.0 0.0 13.7
21:20 16.7 16.6 99 1015.4 19.7 S 19.7 0.0 13.7
21:21 16.7 16.6 99 1015.4 15.2 S 19.7 0.0 13.7
21:22 16.7 16.6 99 1015.5 19.7 S 19.7 0.0 13.7
21:23 16.7 16.6 99 1015.4 15.9 SW 19.7 0.0 13.7
21:24 16.7 16.6 99 1015.3 19.7 S 19.7 0.0 13.7
21:25 16.7 16.6 99 1015.3 18.3 S 19.7 0.0 13.7
21:26 16.7 16.6 99 1015.5 17.4 SE 19.7 0.0 13.7
21:27 16.7 16.6 99 1015.2 18.3 S 19.7 0.0 13.7
21:28 16.7 16.6 99 1015.3 18.3 E 19.7 0.0 13.7
21:29 16.7 16.6 99 1015.3 15.9 S 20.6 0.0 13.7
21:30 16.7 16.6 99 1015.2 14.5 SE 20.6 0.0 13.7
21:31 16.7 16.6 99 1015.2 15.9 SE 20.6 0.0 13.7
21:32 16.7 16.6 99 1015.3 14.5 SE 20.6 0.0 13.7
21:33 16.7 16.6 99 1015.3 15.2 S 20.6 0.0 13.7
21:34 16.7 16.6 99 1015.2 17.4 SE 20.6 0.0 13.7
21:35 16.7 16.6 99 1015.4 19.0 S 20.6 0.0 13.7
21:36 16.8 16.7 99 1015.3 16.8 SE 20.6 0.0 13.7
21:37 16.7 16.6 99 1015.4 19.0 SW 20.6 0.0 13.7
21:38 16.8 16.7 99 1015.3 19.0 S 20.6 0.0 13.7
21:39 16.8 16.7 99 1015.5 15.9 SE 19.0 0.0 13.7
21:40 16.8 16.7 99 1015.4 16.8 S 19.0 0.0 13.7
21:41 16.8 16.7 99 1015.5 15.9 S 19.0 0.0 13.7
21:42 16.8 16.7 99 1015.5 17.4 SW 19.0 0.0 13.7
21:43 16.8 16.7 99 1015.3 19.7 S 19.7 0.0 13.7
21:44 16.8 16.7 99 1015.4 13.6 SE 19.7 0.0 13.7
21:45 16.8 16.7 99 1015.4 20.6 SW 20.6 0.0 13.7
21:46 16.8 16.7 99 1015.4 18.3 S 20.6 0.0 13.7
21:47 16.8 16.7 99 1015.4 17.4 SE 20.6 0.0 13.7
21:48 16.8 16.7 99 1015.4 20.6 S 20.6 0.0 13.7
21:50 16.8 16.7 99 1015.4 21.3 SSW 21.3 0.0 13.7
21:51 16.9 16.8 99 1015.2 15.9 NW 21.3 0.0 13.7
21:52 16.9 16.8 99 1015.4 17.4 S 21.3 0.0 13.7
21:54 16.9 16.8 99 1015.3 19.0 SE 24.4 0.0 13.7
21:55 16.9 16.8 99 1015.4 18.3 S 24.4 0.0 13.7
21:57 16.9 16.8 99 1015.2 20.6 SW 24.4 0.0 13.7
21:58 16.9 16.8 99 1015.2 17.4 S 24.4 0.0 13.7
21:59 16.9 16.8 99 1015.1 17.4 S 24.4 0.0 13.7
22:00 16.9 16.8 99 1015.1 17.4 S 24.4 0.0 13.7
22:01 16.9 16.8 99 1015.0 17.4 S 24.4 0.0 13.7
22:02 16.9 16.8 99 1015.1 17.4 S 24.4 0.0 13.7
22:03 16.9 16.8 99 1014.9 17.4 S 24.4 0.0 13.7
22:04 16.9 16.8 99 1015.1 17.4 S 20.6 0.0 13.7
22:05 16.9 16.8 99 1015.0 17.4 S 20.6 0.0 13.7
22:06 16.9 16.8 99 1014.9 19.7 SE 20.6 0.0 13.7
22:07 16.9 16.8 99 1015.0 13.0 S 19.7 0.0 13.7
22:08 17.0 16.9 99 1015.0 19.0 S 19.7 0.0 13.7
22:09 16.9 16.8 99 1015.0 15.2 S 19.7 0.0 13.7
22:10 16.9 16.8 99 1014.9 17.4 S 19.7 0.0 13.7
22:11 16.9 16.8 99 1014.8 18.3 SW 19.7 0.0 13.7
22:12 16.9 16.8 99 1014.7 17.4 S 19.7 0.0 13.7
22:13 16.9 16.8 99 1014.6 15.2 S 19.7 0.0 13.7
22:14 16.9 16.8 99 1014.7 16.8 SW 19.7 0.0 13.7
22:15 17.0 16.9 99 1014.7 18.3 S 19.7 0.0 13.7
22:16 16.9 16.8 99 1014.7 15.9 SE 19.0 0.0 13.7
22:18 17.0 16.9 99 1014.6 20.6 S 20.6 0.0 13.7
22:19 17.0 16.9 99 1014.8 15.9 SE 20.6 0.0 13.7
22:20 17.0 16.9 99 1014.7 18.3 S 20.6 0.0 13.7
22:22 17.0 16.9 99 1014.8 19.0 S 24.4 0.0 13.7
22:23 17.0 16.9 99 1014.8 18.3 SE 24.4 0.0 13.7
22:24 17.0 16.9 99 1014.6 14.5 SW 24.4 0.0 13.7
22:25 17.0 16.9 99 1014.5 22.8 S 24.4 0.0 13.7
22:26 17.0 16.9 99 1014.6 15.9 SW 24.4 0.0 13.7
22:27 17.0 16.9 99 1014.6 13.0 SW 24.4 0.0 13.7
22:28 17.0 16.9 99 1014.5 20.6 S 24.4 0.0 13.7
22:29 17.0 16.9 99 1014.7 18.3 S 24.4 0.0 13.7
22:30 17.0 16.9 99 1014.6 18.3 S 24.4 0.0 13.7
22:31 17.0 16.9 99 1014.6 18.3 SSW 22.8 0.0 13.7
22:32 17.1 17.0 99 1014.5 19.0 SSW 22.8 0.0 13.7
22:33 17.1 17.0 99 1014.4 12.1 SW 22.8 0.0 13.7
22:34 17.0 16.9 99 1014.5 19.0 SE 22.8 0.0 13.7
22:35 17.1 17.0 99 1014.5 15.2 SE 22.8 0.0 13.7
22:36 17.1 17.0 99 1014.3 15.9 SE 20.6 0.0 13.7
22:37 17.1 17.0 99 1014.5 18.3 S 20.6 0.0 13.7
22:38 17.1 17.0 99 1014.3 18.3 S 20.6 0.0 13.7
22:39 17.1 17.0 99 1014.3 15.9 WNW 19.0 0.0 13.7
22:40 17.1 17.0 99 1014.6 17.4 SE 19.7 0.0 13.7
22:41 17.1 17.0 99 1014.4 21.3 S 21.3 0.0 13.7
22:42 17.1 17.0 99 1014.3 15.9 S 21.3 0.0 13.7
22:43 17.1 17.0 99 1014.3 15.9 SE 21.3 0.0 13.7
22:44 17.1 17.0 99 1014.3 13.0 S 21.3 0.0 13.7
22:45 17.1 17.0 99 1014.3 13.0 S 21.3 0.0 13.7
22:46 17.1 17.0 99 1014.3 14.5 S 21.3 0.0 13.7
22:47 17.1 17.0 99 1014.3 18.3 S 21.3 0.0 13.7
22:48 17.1 17.0 99 1014.4 18.3 S 21.3 0.0 13.7
22:50 17.1 17.0 99 1014.3 13.6 SE 21.3 0.0 13.7
22:51 17.1 17.0 99 1014.3 10.7 S 21.3 0.0 13.7
22:52 17.1 17.0 99 1014.3 14.5 S 20.6 0.0 13.7
22:53 17.1 17.0 99 1014.2 15.9 SW 20.6 0.0 13.7
22:54 17.1 17.0 99 1014.3 19.0 SE 22.1 0.0 13.7
22:55 17.1 17.0 99 1014.3 19.0 SW 22.1 0.0 13.7
22:56 17.1 17.0 99 1014.3 19.0 S 22.1 0.0 13.7
22:57 17.1 17.0 99 1014.2 15.9 SW 22.1 0.0 13.7
22:58 17.1 17.0 99 1014.3 19.0 SW 22.1 0.0 13.7
22:59 17.1 17.0 99 1014.3 16.8 SW 22.1 0.0 13.7
23:00 17.1 17.0 99 1014.2 21.3 SW 22.1 0.0 13.7
23:01 17.1 17.0 99 1014.3 21.3 SW 22.1 0.0 13.7
23:02 17.1 17.0 99 1014.3 15.2 S 22.1 0.0 13.7
23:03 17.1 17.0 99 1014.3 13.0 S 22.1 0.0 13.7
23:04 17.1 17.0 99 1014.3 15.9 SE 21.3 0.0 13.7
23:05 17.1 17.0 99 1014.2 15.9 S 21.3 0.0 13.7
23:06 17.1 17.0 99 1014.2 17.4 S 21.3 0.0 13.7
23:07 17.1 17.0 99 1014.2 19.7 S 21.3 0.0 13.7
23:08 17.1 17.0 99 1014.1 21.3 SE 21.3 0.0 13.7
23:09 17.1 17.0 99 1014.2 18.3 S 21.3 0.0 13.7
23:10 17.2 17.1 99 1014.2 18.3 SE 21.3 0.0 13.7
23:11 17.1 17.0 99 1014.1 13.6 SSW 21.3 0.0 13.7
23:12 17.2 17.1 99 1014.2 17.4 SE 21.3 0.0 13.7
23:13 17.2 17.1 99 1014.1 15.2 S 21.3 0.0 13.7
23:14 17.2 17.1 99 1014.2 19.0 SE 21.3 0.0 13.7
23:15 17.2 17.1 99 1014.3 14.5 S 21.3 0.0 13.7
23:16 17.2 17.1 99 1014.2 20.6 SSE 21.3 0.0 13.7
23:17 17.1 17.0 99 1014.2 15.2 S 21.3 0.0 13.7
23:18 17.1 17.0 99 1014.2 11.4 S 21.3 0.0 13.7
23:19 17.2 17.1 99 1014.0 19.0 S 20.6 0.0 13.7
23:20 17.2 17.1 99 1014.2 19.0 S 20.6 0.0 13.7
23:21 17.2 17.1 99 1014.1 12.1 S 20.6 0.0 13.7
23:22 17.2 17.1 99 1014.1 21.3 E 21.3 0.0 13.7
23:23 17.2 17.1 99 1014.2 16.8 S 21.3 0.0 13.7
23:24 17.2 17.1 99 1014.1 21.3 SW 21.3 0.0 13.7
23:25 17.2 17.1 99 1014.1 15.9 S 21.3 0.0 13.7
23:26 17.2 17.1 99 1014.1 15.9 S 21.3 0.0 13.7
23:27 17.2 17.1 99 1013.9 19.0 E 21.3 0.0 13.7
23:28 17.2 17.1 99 1014.1 11.4 SE 21.3 0.0 13.7
23:29 17.2 17.1 99 1013.9 16.8 S 21.3 0.0 13.7
23:30 17.2 17.1 99 1014.0 18.3 SSW 21.3 0.0 13.7
23:31 17.2 17.1 99 1014.0 16.8 S 21.3 0.0 13.7
23:32 17.2 17.1 99 1013.9 17.4 S 21.3 0.0 13.7
23:33 17.2 17.1 99 1013.8 21.3 SE 21.3 0.0 13.7
23:34 17.2 17.1 99 1013.8 16.8 SE 21.3 0.0 13.7
23:35 17.2 17.1 99 1014.0 19.0 S 21.3 0.0 13.7
23:36 17.2 17.1 99 1013.9 19.7 S 21.3 0.0 13.7
23:37 17.2 17.1 99 1014.0 18.3 N 21.3 0.0 13.7
23:38 17.2 17.1 99 1013.7 16.8 S 21.3 0.0 13.7
23:39 17.2 17.1 99 1013.7 18.3 SW 21.3 0.0 13.7
23:40 17.2 17.1 99 1013.8 18.3 S 21.3 0.0 13.7
23:41 17.2 17.1 99 1013.7 15.2 S 21.3 0.0 13.7
23:42 17.2 17.1 99 1013.7 25.1 S 25.1 0.0 13.7
23:43 17.2 17.1 99 1013.7 19.7 S 25.1 0.0 13.7
23:44 17.2 17.1 99 1013.6 19.7 SSE 25.1 0.0 13.7
23:45 17.2 17.1 99 1013.7 19.0 S 25.1 0.0 13.7
23:46 17.2 17.1 99 1013.6 23.5 S 25.1 0.0 13.7
23:47 17.2 17.1 99 1013.5 22.1 S 25.1 0.0 13.7
23:49 17.2 17.1 99 1013.5 16.8 S 25.1 0.0 13.7
23:50 17.2 17.1 99 1013.7 22.8 S 25.1 0.0 13.7
23:51 17.2 17.1 99 1013.6 22.1 S 25.1 0.0 13.7
23:53 17.2 17.1 99 1013.7 24.4 SE 24.4 0.0 13.7
23:54 17.2 17.1 99 1013.7 18.3 S 24.4 0.0 13.7
23:56 17.2 17.1 99 1013.6 18.3 S 24.4 0.0 13.7
23:57 17.2 17.1 99 1013.6 17.4 SSE 24.4 0.0 13.7
23:58 17.2 17.1 99 1013.5 19.0 S 24.4 0.0 13.7
23:59 17.2 17.1 99 1013.8 17.4 SE 24.4 0.0 13.7

UK - WEATHER STATION TOPSITES - UK World Weather Websites

This is a private weather station, never base important decisions or events on data from this weather station. Although every effort has been made to make the data as accurate as possible it does not meet MetOffice standards. It is proved as a guide of local weather conditions. We accept no liability for any loss which may arise from use of the data.

Copyright © Carnkie Weather 2009 - 2018.